ECMWFFLT1_sfc_temp_069.txt.gz
Temp
75 73 76 77 76 76 76 76 76 73 74 78 79 79 78 76 75 74 71 69 67 68 69 70 70 69 69 73 71 70 70 68 68 68 66 66 64 67 70 71 71 73 71 71 71 67 67 62 66 74 74 73 76 77 79 81 81 79 78 79 80 80 79
75 76 78 78 78 78 77 77 77 77 77 78 79 79 78 78 76 74 74 72 69 68 70 69 68 71 70 71 70 68 67 67 68 69 68 66 65 64 65 66 67 68 72 70 72 69 69 67 65 67 69 73 75 74 76 78 79 79 79 79 81 81 78
75 76 77 76 76 77 76 76 76 76 77 77 78 78 78 78 76 77 75 74 73 72 71 70 72 72 71 70 70 69 69 68 70 69 68 66 67 66 65 65 63 69 69 68 67 67 69 69 65 69 69 67 66 71 75 75 77 79 80 79 79 82 80
74 74 74 74 76 76 75 76 76 76 77 76 78 77 77 78 77 77 76 75 75 73 70 69 69 68 69 69 69 69 70 69 69 68 68 69 67 65 65 63 64 67 69 67 67 67 67 70 70 70 71 71 71 68 73 77 77 80 80 79 79 81 79
73 74 74 74 75 75 76 76 77 77 77 77 76 75 75 76 76 76 76 75 74 73 72 70 70 69 69 68 69 71 70 70 70 68 67 67 67 65 64 65 66 66 69 71 72 69 70 71 71 71 70 73 74 75 77 75 79 79 79 80 81 82 80
71 72 72 73 74 74 74 74 74 70 71 74 75 75 75 75 75 75 75 74 73 73 72 72 70 71 70 69 70 70 70 69 68 68 66 66 66 65 66 67 68 67 67 70 69 68 73 72 70 69 70 74 68 71 75 73 74 79 80 80 81 83 82
69 70 71 71 71 72 73 73 73 73 73 74 75 74 76 76 76 76 76 75 75 74 74 73 72 72 72 70 70 69 68 69 69 68 67 67 66 66 68 66 65 66 66 68 71 71 69 69 66 69 68 69 71 68 75 75 77 75 77 80 82 83 82
70 70 70 70 71 72 72 72 73 74 74 75 76 76 77 77 76 76 76 75 74 73 73 74 72 71 71 71 70 69 68 68 68 68 67 68 67 67 66 66 66 66 67 69 72 73 75 73 71 71 69 63 68 69 68 72 74 74 75 77 82 82 83
70 70 70 70 69 70 71 72 73 73 75 76 76 76 76 74 73 75 76 75 75 73 75 75 73 72 71 69 70 69 67 68 67 67 67 69 69 68 68 66 65 66 67 69 72 74 73 72 77 73 73 69 67 65 68 69 70 71 77 76 80 83 83
68 68 69 69 70 71 71 72 72 74 75 76 75 75 74 74 71 67 69 73 72 70 71 72 70 72 72 69 68 68 67 68 66 67 67 67 69 69 68 67 65 68 69 70 69 69 71 75 76 76 77 74 75 69 66 65 69 72 76 81 76 80 84
68 68 68 69 70 70 71 73 74 74 74 75 75 74 75 74 74 71 68 69 70 70 70 71 74 73 71 68 68 68 69 69 67 67 67 67 68 68 67 67 68 67 72 72 68 69 71 74 75 76 77 78 76 72 69 67 68 74 75 80 80 78 82
70 69 69 69 69 70 71 72 73 73 74 75 73 73 74 75 74 74 72 71 68 71 73 73 73 71 71 69 68 68 69 70 68 67 67 66 66 68 67 66 67 66 73 70 69 67 68 71 73 75 70 76 76 75 72 73 68 73 78 72 79 82 81
71 70 69 68 68 69 71 72 72 72 72 74 74 74 74 73 74 74 73 70 74 75 74 73 73 72 71 70 69 67 67 69 67 66 66 67 67 67 66 65 67 68 73 72 70 67 65 68 71 75 76 77 76 75 72 70 70 70 73 72 77 80 82
69 70 68 68 67 68 68 68 69 70 72 71 73 74 74 74 75 74 74 73 73 72 70 70 72 73 70 68 68 67 67 66 65 65 65 66 68 67 66 66 67 69 74 73 72 70 67 68 70 71 77 76 74 72 72 71 69 70 73 73 72 79 80
70 69 67 67 66 67 67 67 68 69 68 70 72 72 73 73 73 74 75 74 73 71 70 72 71 73 70 69 67 66 66 65 64 67 68 71 69 67 66 66 67 70 74 73 71 72 71 67 67 65 69 72 70 70 72 72 72 70 69 73 72 80 78
69 68 67 66 66 66 67 67 68 67 68 69 70 71 70 72 72 74 74 73 74 74 73 75 74 73 71 69 70 67 65 64 65 66 68 68 68 68 67 67 70 71 71 71 71 70 69 67 67 67 67 68 70 70 71 76 72 70 70 72 75 74 77
66 67 66 66 65 65 67 67 69 67 67 67 67 69 71 71 71 72 72 73 74 74 74 72 70 71 71 71 70 69 66 65 66 66 65 66 65 66 66 68 69 69 69 66 66 66 67 67 66 66 67 69 70 70 70 70 71 72 72 71 75 78 79
66 67 66 66 65 65 65 66 66 68 68 67 68 67 68 70 71 70 69 72 72 74 76 75 70 67 70 72 72 70 70 70 68 67 67 66 65 64 65 65 69 70 67 65 66 67 68 67 67 66 69 72 72 73 72 71 71 72 70 70 73 77 78
65 66 66 66 65 65 65 65 65 65 67 67 68 68 67 68 70 71 73 71 74 72 76 72 68 68 70 73 72 71 70 70 69 70 68 67 66 65 65 66 68 67 65 66 66 66 70 67 70 71 71 72 73 73 71 71 65 70 71 71 72 73 76
65 65 65 66 65 65 64 64 64 63 64 64 64 64 66 67 68 69 71 70 69 71 72 70 67 67 67 73 73 71 70 70 69 68 70 70 69 67 67 67 66 67 66 68 67 67 67 69 70 71 70 69 70 66 64 65 68 65 66 71 73 74 77
65 66 66 66 65 64 64 64 63 62 62 62 61 61 60 62 66 69 69 67 67 66 68 70 67 67 68 72 71 71 70 69 69 68 68 70 70 69 66 65 67 67 67 69 66 65 69 70 70 69 68 68 67 65 65 67 66 66 68 70 67 72 76
65 65 65 65 64 64 63 62 62 61 61 60 58 58 58 59 60 64 66 66 68 66 68 66 66 65 65 67 67 69 69 69 69 68 68 67 68 69 69 67 67 71 70 67 62 64 65 65 69 66 66 65 64 63 64 70 68 67 67 64 67 72 74
64 64 64 63 64 64 63 62 61 60 59 58 57 57 57 57 58 59 59 62 64 64 65 65 58 54 55 61 65 68 67 67 68 68 67 65 64 65 67 68 69 65 60 61 58 54 54 55 59 65 66 65 63 63 63 66 68 69 65 65 65 64 70
63 62 62 62 63 63 62 61 60 59 58 57 56 55 54 54 55 56 58 59 59 60 56 47 41 41 47 51 59 65 65 67 68 68 69 67 65 64 65 67 68 66 63 61 62 51 51 50 49 50 53 56 57 62 65 64 69 65 68 69 68 67 69
62 61 61 62 62 62 62 60 59 58 58 57 56 55 52 52 52 53 54 56 57 55 50 44 39 41 41 41 45 57 64 67 68 68 68 69 68 65 64 64 65 66 65 67 69 65 56 50 47 47 49 50 50 45 49 65 69 68 69 70 68 66 67
61 61 61 61 61 61 61 59 58 57 57 57 56 54 53 51 51 51 51 51 52 55 49 42 40 40 40 39 40 46 57 65 69 67 65 63 64 63 63 64 64 64 66 61 64 67 66 62 52 48 49 48 48 48 45 44 51 68 73 70 68 65 65
60 60 61 60 60 60 59 58 58 58 57 57 55 54 53 51 51 50 49 49 49 52 49 42 40 40 39 39 39 42 54 58 62 67 66 65 65 65 64 63 62 61 63 63 63 64 65 64 63 61 61 64 66 56 45 42 43 45 60 71 70 67 66
61 60 60 60 59 58 57 57 57 57 58 57 56 54 53 52 51 50 49 48 48 48 49 41 40 39 39 39 39 42 54 57 60 62 65 67 68 66 66 65 63 62 62 62 62 61 63 64 65 64 65 67 69 69 70 68 68 70 69 70 72 71 68
61 61 60 60 58 57 56 56 55 56 57 57 57 57 56 54 52 50 49 48 47 46 48 41 40 39 39 38 39 51 56 58 59 61 63 66 66 67 66 63 62 62 63 63 57 49 54 62 65 64 64 65 68 69 59 45 41 45 59 69 72 72 70
61 61 61 59 58 57 56 56 56 56 55 56 55 55 56 55 54 52 50 48 46 46 47 44 40 39 39 38 42 52 56 59 60 60 61 62 64 67 67 65 64 63 63 62 55 48 48 51 63 64 66 66 69 66 61 54 43 40 41 41 41 41 40
61 61 61 59 58 58 57 57 57 57 55 54 54 54 55 56 56 55 52 49 48 45 45 44 40 39 39 39 40 51 55 57 59 61 61 62 62 62 63 61 63 62 61 61 51 48 46 53 62 64 65 64 62 64 62 61 59 51 41 42 42 42 42
61 61 60 58 58 57 57 56 57 57 56 56 55 56 55 55 54 55 54 52 50 47 46 45 42 39 39 39 41 50 56 57 57 58 60 60 61 61 60 59 57 58 60 57 48 46 48 54 65 64 60 61 63 65 63 62 61 59 60 60 59 59 55
61 60 60 60 60 59 59 58 57 56 56 56 56 55 55 54 53 52 53 53 52 49 47 47 45 40 40 40 39 45 54 52 53 54 57 60 59 60 60 59 52 42 44 49 47 46 47 46 57 61 63 62 62 65 66 64 64 64 64 64 63 64 63
61 60 61 61 61 60 60 59 58 56 56 56 56 54 54 54 53 52 52 52 51 50 49 47 45 41 40 40 39 40 47 47 47 52 54 53 57 57 57 55 53 41 39 42 43 44 47 45 44 56 61 66 65 66 61 66 63 57 66 64 64 64 64
61 60 61 61 59 59 59 60 59 58 57 56 55 54 54 53 52 51 52 51 50 49 49 46 45 43 40 40 39 39 41 42 43 48 50 50 50 50 49 47 47 41 38 40 40 40 40 43 45 59 56 47 48 50 64 66 67 66 65 65 65 65 65
60 60 59 59 60 58 58 58 58 58 56 56 55 54 54 52 51 50 50 50 50 49 48 47 43 44 41 40 39 40 39 40 40 44 44 44 44 44 44 45 44 39 38 39 39 40 41 43 46 48 43 45 46 48 55 65 66 66 66 67 65 65 65
61 61 61 60 59 58 57 56 56 57 56 55 54 54 54 52 51 50 49 48 49 49 48 46 44 42 42 40 40 39 39 39 39 42 42 41 42 42 43 42 41 39 39 39 39 39 39 40 42 40 41 43 46 52 64 66 66 67 64 64 63 62 61

ECMWFFLT1_sfc_temp_072.txt.gz
Temp
72 71 73 73 75 75 74 74 74 74 75 75 75 75 75 74 73 72 71 70 69 69 67 67 68 67 68 69 69 69 68 67 66 65 64 65 63 63 66 65 65 65 64 65 65 63 62 59 61 66 68 69 70 72 74 75 76 72 71 72 74 73 72
73 73 74 75 74 74 74 74 74 75 75 75 75 73 73 74 73 73 72 70 69 69 68 68 68 69 68 67 67 66 67 67 66 66 65 65 65 64 64 64 64 63 63 64 65 63 58 58 60 62 63 67 68 68 70 72 73 72 73 73 74 74 72
71 72 73 73 72 73 72 73 72 72 73 73 73 71 71 72 72 72 72 71 70 70 69 68 69 69 68 68 68 67 67 67 67 66 66 66 66 66 65 64 63 63 62 61 62 61 62 63 59 61 64 64 62 65 69 69 71 73 74 72 72 75 73
69 70 70 70 71 71 71 71 70 69 70 71 73 73 69 70 70 71 70 70 71 70 69 69 68 68 69 68 68 68 67 66 66 66 65 66 66 65 65 64 63 64 62 61 62 61 62 60 59 59 61 66 66 64 67 71 72 74 74 73 73 74 74
68 69 68 68 69 69 70 70 70 70 71 71 71 72 71 71 70 69 68 68 69 69 68 69 69 69 69 69 67 66 66 66 67 66 66 65 66 65 65 65 64 65 64 63 64 63 62 62 62 62 64 66 65 67 71 70 73 74 75 75 76 75 74
68 68 68 68 69 69 69 69 70 70 70 70 70 70 71 72 69 68 68 67 67 69 69 68 67 69 70 69 68 67 66 66 66 66 65 65 65 64 64 65 65 65 64 66 64 63 63 63 61 59 62 66 61 62 69 70 68 73 74 74 76 76 76
67 67 67 68 68 69 69 68 69 70 70 70 71 70 71 72 72 71 69 68 68 68 67 66 68 68 69 68 67 67 66 66 66 66 66 66 66 66 66 65 64 65 65 65 64 64 63 62 61 60 60 60 62 62 69 69 71 68 71 73 76 77 76
66 66 67 68 68 68 69 69 69 70 70 71 71 72 74 72 72 71 69 67 67 66 67 66 66 66 65 66 66 66 65 65 66 65 63 65 65 66 66 65 65 65 65 65 65 64 65 64 64 63 61 58 58 58 60 68 69 69 70 73 77 77 76
67 67 66 67 67 67 68 69 69 69 70 71 71 72 73 73 72 70 70 68 68 67 67 67 66 65 65 64 64 65 65 67 65 64 64 65 65 66 66 66 65 65 65 65 66 65 65 65 64 63 61 60 58 57 59 59 61 65 73 67 73 76 76
67 66 66 66 66 67 67 68 69 70 70 70 71 72 72 72 72 71 70 68 67 67 67 66 66 66 65 65 65 65 65 65 65 65 65 64 65 66 65 65 65 65 65 66 66 66 65 64 64 64 63 61 61 59 58 58 60 62 70 70 69 73 78
67 67 66 66 66 66 67 67 67 67 68 69 70 70 71 71 71 72 70 69 69 68 68 67 67 67 65 63 64 65 65 64 64 65 65 66 65 65 64 64 65 65 65 65 65 66 66 64 64 64 63 64 63 60 61 61 60 66 67 71 72 71 75
67 67 66 66 65 65 66 66 66 66 67 68 68 68 69 70 70 71 71 70 69 68 69 68 68 67 66 64 64 64 65 65 65 65 65 65 65 64 64 64 64 64 65 65 65 66 67 65 64 64 64 64 63 64 62 63 60 62 65 64 71 75 75
68 67 66 65 64 65 65 65 66 66 66 67 67 68 68 69 69 69 70 70 68 67 66 65 66 66 65 65 65 63 64 65 65 64 64 64 64 64 64 64 64 64 65 65 65 66 66 67 67 64 65 64 63 63 62 62 62 61 64 68 70 74 77
65 66 66 66 64 64 64 64 65 66 67 66 67 67 67 68 68 69 70 69 68 67 65 64 65 64 64 64 65 65 65 65 64 63 64 64 65 64 64 64 64 65 65 64 64 65 66 67 67 66 65 64 62 64 62 61 60 61 66 68 70 73 76
65 66 65 64 64 64 64 63 64 64 63 65 66 67 68 68 68 68 68 68 67 67 66 66 65 63 63 64 64 64 65 64 64 64 64 64 65 65 63 63 64 64 65 64 64 64 66 66 67 65 65 65 62 61 63 62 61 59 61 65 68 71 74
65 64 64 64 63 63 63 63 64 63 63 63 64 64 64 65 65 67 68 67 68 67 66 65 65 64 64 64 63 63 64 65 64 64 63 64 64 64 63 63 63 63 64 63 64 64 65 67 68 66 65 64 63 63 63 63 61 59 59 60 66 69 71
64 64 63 63 62 62 62 62 63 62 62 62 61 62 63 62 61 62 63 66 67 67 66 63 64 64 64 64 64 64 64 65 65 64 64 64 64 64 63 62 63 64 64 63 63 63 63 64 65 65 65 64 63 63 63 63 63 63 63 62 67 71 70
62 62 62 62 62 62 62 62 62 62 61 60 60 60 59 60 59 60 60 63 65 65 65 64 64 64 64 64 64 64 63 64 65 64 63 64 64 64 63 63 64 65 64 62 62 62 63 63 65 65 64 64 63 63 63 63 63 63 60 61 65 70 70
61 61 61 61 61 62 62 61 61 60 60 59 58 58 57 57 57 58 59 61 63 63 62 62 60 58 60 63 64 63 63 63 64 64 63 63 64 64 63 63 63 63 64 62 62 62 63 63 64 65 65 65 65 63 63 63 63 62 62 60 63 66 68
61 61 61 61 61 62 61 60 60 59 60 59 57 56 56 55 56 56 57 58 60 56 52 51 49 49 50 53 59 63 63 63 63 64 64 64 64 63 63 63 63 63 63 63 62 63 63 63 63 64 65 65 66 63 62 62 62 62 61 61 63 66 66
61 61 61 61 61 61 60 60 59 59 59 57 57 56 55 54 54 55 54 54 56 54 51 49 48 46 46 48 50 56 62 63 63 63 63 64 64 63 63 63 62 64 64 63 63 63 63 62 63 63 65 65 65 62 62 61 61 61 60 60 60 59 58
61 61 61 61 60 60 60 59 59 59 58 57 56 56 56 54 53 53 52 52 52 53 49 47 46 44 43 44 46 51 56 60 62 62 62 62 63 63 63 61 63 64 64 63 60 60 61 61 63 62 63 64 64 61 61 61 60 60 59 59 59 58 58
61 60 60 59 59 60 59 59 59 58 58 58 57 57 56 55 54 52 51 51 50 51 48 47 45 43 43 43 44 46 51 55 60 62 62 62 63 63 63 62 63 62 61 60 57 55 53 54 57 62 63 63 63 62 60 60 60 60 59 58 58 58 57
60 59 59 59 58 58 58 58 58 58 58 57 56 56 55 54 53 52 51 50 49 49 48 46 42 40 40 41 42 44 46 51 57 60 62 62 62 62 63 64 64 63 61 59 57 51 50 50 50 51 54 57 60 63 61 59 59 60 59 59 60 59 57
60 59 59 58 58 58 57 57 56 57 56 56 57 56 55 54 53 53 51 50 49 48 47 45 41 41 40 40 41 42 44 49 54 57 60 61 62 61 62 63 63 63 62 61 62 59 53 49 48 48 49 51 51 53 56 61 61 60 60 59 59 59 59
60 60 59 59 58 57 57 56 55 55 55 56 56 55 55 54 53 53 52 50 49 48 47 43 41 41 40 40 40 41 43 48 53 56 58 60 61 62 62 61 62 62 64 60 61 62 62 59 50 47 49 49 49 48 48 49 53 63 62 60 60 59 59
59 59 59 58 58 57 56 55 55 55 55 55 54 54 54 53 53 53 52 50 49 49 47 44 41 41 40 39 39 40 45 49 54 56 58 59 60 61 61 60 60 61 62 62 62 63 62 62 58 54 54 55 57 52 46 47 47 51 57 61 61 60 61
59 58 58 58 57 57 56 55 55 55 55 54 53 53 53 52 52 52 51 51 50 48 48 43 41 40 40 40 39 41 47 51 54 57 58 60 60 61 61 62 61 61 61 62 62 61 62 63 62 59 58 58 60 58 57 56 57 59 61 63 62 63 63
58 59 58 58 57 56 55 54 54 55 54 54 54 54 54 53 52 51 51 50 49 48 48 43 41 40 40 40 40 44 46 49 53 56 57 60 60 61 61 61 60 60 61 61 57 51 53 61 62 61 59 60 60 60 55 50 47 53 59 63 63 63 64
57 57 58 57 56 55 55 55 54 55 54 54 53 53 52 52 52 51 50 50 48 47 47 44 41 40 40 40 41 44 46 49 52 54 55 56 58 61 62 61 60 60 61 61 54 48 48 50 60 60 60 59 60 57 50 51 43 41 43 48 52 51 49
57 57 57 56 55 55 55 56 55 55 54 54 53 53 53 52 52 51 50 49 48 46 46 45 41 41 40 40 42 43 45 45 46 48 52 54 56 59 61 59 57 60 61 61 51 46 46 50 58 59 60 59 58 53 52 53 53 47 41 42 43 43 42
57 56 56 56 55 54 54 54 55 56 55 55 54 54 53 52 51 51 51 49 49 47 46 45 42 40 40 40 42 43 43 43 43 45 50 49 50 51 52 50 47 43 43 43 40 43 43 49 58 59 60 60 57 54 53 54 52 52 53 53 52 53 53
57 57 56 56 55 54 54 54 54 54 55 55 55 54 53 52 51 51 51 50 49 47 46 45 44 40 41 40 40 43 43 41 41 43 45 46 46 47 47 46 45 40 38 38 40 41 43 44 56 59 59 57 57 56 55 55 54 55 56 55 56 57 57
57 57 58 57 55 55 54 53 53 53 53 54 54 53 52 51 51 51 51 51 50 48 47 45 44 41 40 40 40 41 42 41 41 42 42 42 42 42 43 43 43 40 38 38 38 38 41 43 45 54 57 57 58 56 53 56 54 52 56 56 56 56 56
57 57 57 57 56 54 54 54 54 53 53 53 52 51 51 51 50 49 50 50 49 48 48 46 45 42 40 40 40 40 41 41 41 43 41 41 40 40 41 41 41 40 38 39 39 40 39 40 43 53 52 48 47 46 56 56 55 56 57 56 55 54 54
57 58 57 57 56 54 54 53 53 53 52 51 51 50 50 50 49 48 48 49 49 48 48 48 44 43 41 40 40 40 39 40 39 43 42 40 40 40 41 41 42 41 39 39 39 39 39 40 43 42 39 42 43 45 50 55 53 55 54 56 56 55 56
58 58 57 57 56 54 53 53 53 52 52 51 50 49 49 49 48 47 47 47 47 48 48 47 45 42 41 40 40 40 39 39 39 41 42 41 41 40 39 40 40 39 39 39 39 39 39 40 40 39 41 42 43 45 52 52 53 52 48 47 48 50 52

ECMWFFLT1_sfc_temp_075.txt.gz
Temp
66 65 67 67 68 68 68 68 68 66 66 66 66 67 67 68 68 68 68 67 67 66 66 65 65 65 65 66 66 66 66 64 64 63 62 62 61 61 63 63 63 63 63 63 62 61 57 56 58 62 63 64 65 65 67 69 71 70 67 68 69 68 67
67 67 68 69 68 69 67 67 67 68 65 65 65 66 66 66 68 68 67 67 66 66 67 66 66 66 65 65 65 64 64 64 64 65 63 62 62 62 62 62 63 62 62 62 62 61 57 56 56 59 60 62 63 63 65 68 70 69 69 68 69 69 68
66 67 67 67 67 68 67 67 66 66 68 67 66 66 66 67 68 68 67 66 67 66 66 66 65 65 65 65 66 65 65 64 63 64 63 63 63 64 64 63 62 62 61 60 60 60 59 59 56 57 60 60 59 62 64 65 69 68 69 69 69 70 69
65 65 64 65 66 66 65 66 66 66 66 66 66 66 65 65 66 67 66 66 66 66 66 66 65 64 65 65 66 65 65 64 64 64 63 63 63 63 63 63 63 63 62 60 60 60 60 58 57 57 59 62 62 61 63 66 69 70 70 70 69 70 69
65 64 64 64 65 64 64 63 64 64 65 66 66 65 65 65 65 65 66 65 65 64 65 65 65 65 65 65 65 65 65 65 64 64 63 63 63 63 62 64 64 64 64 62 63 62 60 60 60 59 59 60 61 63 67 65 68 70 70 70 71 71 71
63 63 64 64 64 64 64 64 64 63 64 64 65 66 66 66 66 65 65 64 64 64 64 63 63 64 63 64 64 64 64 63 63 64 63 63 63 62 62 63 63 63 64 65 64 62 62 62 60 58 60 62 58 59 62 64 64 68 70 70 71 72 72
59 61 62 63 64 64 64 64 65 65 65 65 65 65 67 67 66 66 66 65 65 64 64 64 64 64 64 63 63 63 63 64 64 64 63 63 63 63 63 62 62 62 62 64 64 63 62 61 59 60 58 58 59 59 59 59 62 60 63 70 72 73 72
60 59 60 63 63 63 64 64 65 65 64 65 65 66 67 67 66 66 65 65 65 64 64 64 64 63 64 63 63 63 63 64 63 63 64 63 64 63 62 63 63 63 62 63 64 64 64 63 63 61 59 57 56 57 57 59 60 61 63 68 73 73 72
61 60 60 60 61 62 63 64 64 64 64 65 66 66 67 67 66 66 66 65 64 63 63 63 63 63 63 62 62 62 62 64 63 63 62 63 63 64 63 63 63 63 63 64 63 64 63 64 63 62 61 59 57 54 55 56 58 59 65 63 70 74 72
60 59 59 58 58 60 61 62 63 63 64 65 65 66 66 67 67 67 65 65 65 63 63 62 62 62 63 63 62 62 62 63 63 62 62 62 63 63 62 63 62 62 63 64 64 64 64 63 63 63 62 60 60 57 55 55 56 57 62 67 65 70 73
60 60 59 58 59 59 59 60 61 61 62 63 64 64 65 66 66 67 66 66 66 65 63 63 63 64 63 63 63 62 62 63 62 62 62 62 62 62 62 62 63 62 64 64 64 64 63 63 63 63 62 63 61 58 57 55 57 60 61 67 68 65 72
60 60 60 59 59 59 59 59 60 60 61 61 62 62 62 63 62 63 64 65 65 65 64 63 62 63 63 62 63 62 63 63 62 62 62 62 63 62 62 62 62 62 63 63 63 63 63 63 63 63 62 62 61 61 59 58 56 59 64 61 67 71 72
59 60 59 59 59 58 59 60 61 60 59 60 60 60 60 60 60 60 61 62 63 64 64 64 63 61 61 61 61 61 62 62 62 61 62 63 63 63 62 62 62 62 63 63 62 62 62 63 63 62 63 62 62 62 61 59 58 58 60 61 61 67 72
59 59 59 58 58 57 58 60 60 60 60 59 59 58 57 57 58 58 59 60 62 59 56 58 62 62 62 62 62 62 62 62 62 62 62 62 63 62 62 62 62 63 64 63 62 63 63 63 63 62 63 62 61 62 60 59 58 58 60 62 62 62 65
59 59 58 58 57 57 57 58 59 59 58 58 58 57 56 56 56 56 58 59 58 54 54 53 52 53 53 54 58 62 62 62 61 61 62 62 62 62 62 62 62 63 64 64 63 63 63 63 63 62 62 62 61 61 62 60 59 58 58 59 60 62 63
58 57 57 57 57 57 57 57 59 58 57 56 57 56 55 56 56 55 56 56 54 53 51 52 50 50 50 51 53 55 59 62 62 61 61 62 62 63 62 62 62 63 64 63 63 63 63 63 63 63 63 62 62 61 61 62 60 58 58 58 59 61 62
56 56 56 57 57 56 56 57 58 57 56 55 54 55 55 55 55 54 54 53 53 51 49 49 49 48 48 48 48 50 53 56 61 62 62 62 62 62 62 63 63 63 63 62 62 62 62 63 63 63 63 62 62 61 61 61 61 60 60 59 59 61 61
55 56 56 57 57 57 57 57 58 57 56 55 54 54 54 55 54 53 52 51 51 49 48 48 47 47 46 47 47 47 49 52 56 60 62 62 63 63 62 62 63 63 62 60 61 61 61 62 63 62 62 62 61 61 62 61 61 60 58 59 59 61 61
55 55 57 57 57 58 58 57 57 57 56 55 54 53 52 53 53 53 52 51 51 49 48 48 47 46 46 46 46 46 47 49 52 56 60 62 62 62 61 62 62 62 62 61 60 61 61 61 62 61 61 61 61 61 60 60 60 60 60 59 59 59 60
55 55 55 56 57 57 57 57 57 57 57 55 54 52 52 52 52 52 52 52 51 49 48 48 46 45 45 45 45 45 45 47 49 52 56 60 63 62 62 62 61 62 62 62 61 61 61 61 61 61 61 62 62 61 60 60 60 60 60 59 58 59 59
54 54 54 55 55 56 56 56 56 57 57 56 55 54 52 52 52 52 51 51 51 50 48 47 46 45 44 44 44 44 45 46 47 49 53 57 61 62 62 62 62 62 62 62 62 61 61 61 61 61 62 62 62 60 59 59 59 59 59 59 58 57 57
53 53 54 54 54 54 54 55 55 55 56 56 55 55 54 53 52 51 51 50 50 50 48 46 46 44 43 43 43 43 44 45 46 47 51 55 59 62 62 61 61 61 62 62 58 58 59 59 61 60 61 61 61 61 60 59 59 59 58 58 57 57 56
53 53 53 53 53 53 53 53 54 53 54 54 55 55 54 54 53 51 50 49 50 49 47 46 46 44 43 43 43 43 43 44 45 47 50 54 57 60 62 62 62 61 58 57 55 52 51 53 56 60 61 61 61 60 59 58 58 58 58 57 57 57 56
53 52 52 52 52 52 53 53 53 53 53 53 53 53 53 52 52 51 50 49 49 48 47 46 43 41 41 42 43 43 43 44 46 47 50 53 56 58 60 61 61 61 59 58 57 52 50 50 50 51 54 57 59 61 59 58 58 58 57 57 58 57 56
52 52 52 51 51 51 52 52 53 53 53 52 52 53 52 51 51 50 50 49 48 48 47 45 41 41 41 41 42 44 44 46 47 48 51 54 56 57 58 60 60 61 61 61 61 59 54 49 48 49 49 49 50 53 54 59 58 58 58 57 57 57 57
51 52 52 51 50 50 50 50 51 51 51 52 52 51 51 50 50 50 49 48 47 48 47 43 41 41 41 40 41 43 46 46 47 49 51 54 55 57 58 58 59 60 61 59 60 60 60 58 50 47 48 48 47 47 47 49 52 60 60 58 58 58 58
50 51 51 51 51 49 48 48 48 48 49 51 51 51 50 49 49 49 49 48 47 47 46 43 41 41 41 40 40 42 45 45 46 47 49 51 52 53 54 56 58 59 59 60 60 60 60 60 60 56 54 54 56 54 47 47 48 50 55 60 59 58 60
51 50 50 50 50 49 48 48 48 48 48 49 50 49 49 47 47 48 47 47 47 46 46 42 40 40 40 40 41 43 45 45 45 46 48 49 50 49 49 49 49 53 58 60 60 59 60 60 59 59 57 56 57 58 57 55 55 57 58 60 60 61 61
49 49 49 49 48 48 48 48 47 47 49 49 50 49 48 47 47 46 46 46 45 44 45 42 41 40 40 40 41 45 45 44 45 45 46 47 48 47 48 48 46 44 44 51 53 49 52 58 60 59 57 57 57 58 57 56 52 54 59 61 61 61 61
47 47 48 48 47 47 47 47 48 48 47 46 47 47 46 48 48 46 46 46 45 43 44 43 41 40 40 40 41 43 44 44 44 44 44 45 46 45 46 48 46 43 43 44 41 37 40 48 59 59 58 57 58 58 57 54 46 46 47 50 51 51 52
46 46 47 47 47 47 47 48 47 48 47 47 47 46 47 47 48 47 46 45 46 43 43 44 41 40 40 40 41 42 43 42 43 43 43 44 45 44 45 48 47 42 41 42 39 37 39 46 56 59 58 57 57 56 55 55 53 50 45 44 45 48 49
46 46 47 46 47 46 46 46 47 47 47 47 47 47 47 46 45 46 47 47 49 45 43 44 42 40 40 40 41 41 42 41 41 42 42 42 43 42 43 44 45 42 41 40 38 38 37 44 55 56 58 57 57 56 56 55 53 52 51 52 52 52 51
46 46 46 46 46 45 44 45 45 45 45 45 45 45 44 44 43 44 46 47 46 46 44 43 43 40 40 40 40 41 41 39 39 41 41 41 41 41 41 41 42 40 38 38 38 38 38 37 46 55 57 57 56 55 56 54 54 53 53 54 54 54 54
47 46 46 46 46 45 44 43 43 43 43 43 42 43 42 42 43 43 44 46 46 46 45 43 42 41 40 40 40 40 41 40 39 40 40 40 39 39 39 39 40 40 38 38 38 39 38 39 39 47 54 57 57 55 52 54 52 51 54 53 52 53 53
49 49 46 47 46 45 44 44 43 42 42 42 42 42 41 42 41 42 43 44 45 45 46 45 42 41 40 39 39 40 40 40 40 40 40 39 38 38 38 39 39 39 38 38 38 38 38 39 39 42 41 38 44 44 53 53 53 53 53 52 52 51 51
48 49 47 46 46 44 44 44 43 43 41 41 42 42 42 42 41 40 41 42 43 44 44 44 43 41 40 39 39 39 39 39 39 41 39 38 37 37 38 39 40 40 38 38 38 38 38 39 40 39 38 39 41 43 48 53 51 53 52 51 50 49 48
48 46 46 45 45 44 44 43 43 43 42 41 41 41 41 41 41 40 39 40 41 42 43 43 43 41 40 39 39 38 38 38 39 39 40 39 39 38 38 38 38 38 38 38 38 38 38 38 38 38 39 39 42 46 52 50 49 48 46 46 46 45 45

ECMWFFLT1_sfc_temp_078.txt.gz
Temp
63 63 65 66 67 66 64 63 64 63 64 64 64 64 64 64 65 65 66 66 65 65 65 64 63 64 64 64 65 64 63 63 62 62 62 62 60 61 62 61 62 63 61 60 59 60 58 56 58 61 62 63 64 65 66 67 67 67 66 66 67 66 66
65 64 66 66 66 66 65 65 64 64 64 64 64 63 64 65 65 65 65 66 65 65 65 64 64 64 64 64 64 63 63 63 62 63 62 61 61 61 61 60 61 61 61 61 61 59 57 57 58 59 60 61 61 63 64 66 68 67 67 67 67 67 66
64 64 65 64 65 65 64 64 64 65 65 65 65 64 63 65 65 65 64 65 65 65 64 64 64 64 64 64 64 64 64 63 63 62 62 62 62 62 62 62 59 59 60 60 59 59 59 59 57 57 60 60 58 61 63 63 65 67 67 67 67 68 67
63 63 63 63 63 63 63 63 62 63 64 65 65 65 64 64 64 65 64 65 65 65 65 64 64 64 63 63 64 64 64 64 63 62 62 62 62 62 62 61 60 60 60 59 60 60 60 58 57 57 58 61 62 61 62 64 65 67 67 67 67 67 67
61 62 61 61 62 62 62 62 62 63 63 65 65 64 64 65 65 64 65 64 64 63 63 63 64 64 64 64 64 63 63 64 64 63 62 62 61 61 61 62 62 62 62 61 62 62 60 60 60 60 59 59 60 61 65 62 65 66 66 67 68 68 68
58 59 60 60 61 61 62 61 61 61 62 62 63 63 64 65 65 64 65 65 64 63 63 63 63 64 64 63 63 63 63 63 63 63 62 62 62 61 61 62 62 62 62 63 62 61 61 62 60 58 59 60 58 58 61 62 61 64 65 66 68 68 68
58 57 57 58 58 59 61 61 61 61 61 61 62 63 64 65 64 64 65 65 65 64 64 64 64 64 64 63 63 62 63 63 63 63 62 63 62 63 62 61 61 62 62 63 63 62 61 60 58 58 59 58 59 58 58 59 61 60 61 64 67 69 69
57 56 56 57 56 57 58 59 60 61 60 61 61 62 63 63 62 62 62 63 63 64 64 63 63 63 63 62 62 63 63 63 63 63 63 63 63 62 62 61 61 62 62 62 62 62 62 61 60 60 59 57 56 57 57 58 58 60 61 63 67 68 69
58 57 56 56 56 56 56 57 58 59 59 60 60 61 61 61 60 60 61 61 62 61 61 62 62 62 61 60 60 61 62 64 63 63 62 63 62 62 62 62 62 61 62 62 62 62 62 62 61 61 60 60 57 55 56 56 56 58 63 61 64 68 69
56 55 55 55 55 56 56 57 56 57 57 58 57 58 57 57 58 59 59 59 57 56 56 56 57 60 61 61 61 61 62 63 63 62 62 62 62 62 62 62 61 62 62 63 62 62 62 63 63 62 61 61 60 57 55 54 56 57 60 64 61 65 70
55 55 55 54 55 55 57 57 56 55 55 56 56 55 55 55 55 57 58 57 55 55 55 54 54 55 55 57 60 61 62 63 62 62 62 62 62 62 62 62 62 62 63 63 62 62 62 62 62 62 62 61 61 58 58 56 56 59 60 63 65 63 69
55 55 55 55 54 55 57 56 54 54 54 55 54 54 54 55 55 55 57 54 54 54 53 53 52 52 52 52 53 55 58 60 61 61 62 62 62 62 62 61 62 61 62 62 62 62 62 62 62 62 62 62 61 61 59 57 55 58 63 60 63 68 69
55 55 55 54 54 55 56 55 53 53 53 54 54 55 55 54 54 54 55 53 52 52 51 51 50 50 50 50 50 51 53 54 55 57 61 63 63 62 62 61 62 62 62 62 62 62 62 62 62 62 62 62 62 61 60 58 56 57 59 61 61 65 69
54 54 54 54 54 54 55 55 53 53 53 52 53 54 54 54 53 53 53 52 51 50 49 49 49 49 48 48 48 49 50 52 52 53 56 59 62 62 62 62 62 63 63 62 62 62 62 62 62 62 62 62 61 61 60 59 57 57 59 60 61 62 63
53 53 53 53 53 53 54 53 53 52 51 52 52 52 53 53 53 53 53 51 50 50 49 49 48 48 47 46 47 47 47 48 49 51 53 55 59 62 62 62 62 62 63 62 62 62 62 62 62 61 61 61 61 61 61 59 58 57 57 58 59 61 61
53 53 53 54 54 54 54 53 53 52 51 51 52 52 51 52 52 52 52 51 50 49 49 48 48 47 46 46 45 46 47 47 47 48 50 53 55 58 60 61 62 63 63 62 62 62 62 62 62 61 61 61 61 61 61 61 59 58 58 58 59 59 60
52 53 53 54 55 56 55 54 54 52 52 51 51 51 51 51 50 50 50 50 50 49 48 47 47 46 46 45 45 45 45 46 46 47 48 50 53 55 57 59 61 62 62 61 62 62 62 62 61 61 61 61 61 61 62 61 61 59 59 58 58 59 60
52 51 52 53 54 55 55 55 56 55 53 52 51 50 51 51 50 50 49 49 49 48 47 47 46 45 45 45 45 45 45 45 45 46 46 48 51 53 55 58 60 62 62 61 61 61 62 62 62 62 61 62 61 61 61 61 61 61 59 58 58 59 60
50 51 51 51 52 53 54 54 54 54 55 53 52 51 50 50 50 49 50 50 49 48 47 46 45 45 44 45 44 45 45 45 45 45 46 47 48 50 53 57 59 61 61 60 60 61 61 61 61 61 61 61 61 61 61 60 60 60 60 59 59 58 59
49 49 49 50 51 52 52 52 52 52 54 53 52 51 51 49 49 48 49 50 49 48 46 45 44 44 44 44 44 44 44 44 45 46 47 47 48 50 53 56 58 60 61 61 61 61 61 60 60 60 61 61 62 61 60 60 60 60 59 59 59 58 58
49 49 49 49 49 49 50 51 51 51 52 51 50 50 50 49 49 48 48 48 48 47 45 44 44 43 43 43 44 44 44 45 45 46 47 48 50 51 53 56 58 60 61 61 61 61 61 60 61 60 60 60 60 60 59 60 59 59 59 58 58 57 57
48 49 49 49 48 48 48 49 50 50 50 50 50 49 49 49 48 47 47 47 47 47 45 44 44 43 42 42 43 44 45 45 46 47 48 50 51 53 55 56 58 59 60 60 57 57 58 58 60 59 60 60 60 60 59 59 58 58 58 57 57 58 57
48 47 47 47 48 48 47 48 48 48 49 49 49 49 48 48 48 47 46 46 47 46 44 44 45 43 43 42 42 44 45 45 46 47 47 48 50 52 52 52 53 54 53 55 55 52 50 50 54 59 60 60 60 60 59 58 58 58 58 57 57 56 56
48 48 48 47 47 47 47 47 47 47 47 48 48 48 48 47 46 46 46 45 45 45 44 44 42 40 40 41 43 44 45 45 46 46 47 47 47 48 48 50 50 51 51 52 53 52 50 48 48 49 52 55 58 60 59 58 58 58 57 57 57 57 56
47 47 47 47 47 47 47 46 46 46 47 47 47 47 46 46 46 45 45 45 44 45 44 44 40 41 40 40 42 44 45 45 45 46 46 46 46 46 46 47 48 49 49 49 50 52 53 51 48 47 47 47 48 50 52 58 58 57 58 57 57 57 57
46 46 46 46 47 47 46 46 44 45 46 47 46 45 45 45 44 45 44 43 43 44 43 43 40 41 40 40 40 42 45 45 45 45 45 46 45 45 45 46 46 47 47 48 48 47 45 45 49 49 47 48 47 47 46 47 50 59 59 58 58 58 58
46 45 45 46 46 46 45 45 44 43 44 45 44 44 44 44 44 44 44 43 42 43 43 43 40 40 40 39 40 41 44 44 45 45 45 45 45 44 44 44 44 44 44 45 45 45 43 43 44 49 54 52 53 53 48 46 45 47 53 59 59 58 59
45 45 45 45 45 44 44 43 44 44 43 42 42 42 42 42 43 43 43 43 42 42 43 42 40 40 40 39 40 42 43 44 44 45 44 45 45 44 44 44 44 43 42 42 44 42 41 41 43 45 52 57 55 55 56 55 53 53 54 59 60 60 61
43 43 44 44 44 43 43 42 42 42 42 40 42 41 42 42 42 41 43 43 42 41 42 42 40 40 40 39 41 43 43 43 42 43 43 44 44 44 44 44 44 43 41 41 42 39 40 40 42 47 51 56 57 57 57 56 52 52 56 58 60 60 60
42 42 42 42 42 41 41 41 41 42 41 41 40 41 40 41 41 41 41 42 41 41 41 42 40 40 39 39 40 41 42 42 42 42 43 43 43 43 43 44 44 42 41 41 40 38 38 40 43 47 50 55 58 57 56 57 50 47 47 48 50 50 51
42 41 40 40 40 40 40 41 41 42 40 40 40 40 40 40 41 41 41 41 43 40 40 42 41 40 40 39 41 40 40 40 40 41 42 43 43 42 43 46 45 42 40 40 39 38 38 40 41 44 47 51 56 56 56 56 55 52 46 46 47 48 47
42 41 41 39 39 39 39 41 41 41 40 40 40 39 41 39 40 40 40 41 45 41 40 41 42 40 40 39 40 40 40 39 39 40 41 41 42 41 41 42 43 42 41 39 38 38 38 39 40 42 44 47 51 55 56 56 54 54 53 52 52 52 52
41 41 40 39 40 40 39 38 39 40 40 39 39 39 39 39 38 39 39 40 40 40 40 40 42 40 40 40 40 40 40 39 37 39 40 40 40 40 40 40 40 39 38 38 38 38 38 38 39 41 42 43 45 51 56 55 54 54 54 53 54 54 55
42 40 40 41 41 40 39 38 38 38 38 39 38 39 38 38 37 38 39 39 39 39 41 41 41 40 40 40 39 39 39 39 38 38 39 39 39 38 38 38 39 40 38 38 38 38 38 38 39 41 40 39 41 43 42 46 53 50 54 53 53 53 52
42 44 41 42 41 40 40 40 39 37 37 37 37 38 37 38 37 37 38 39 39 39 41 43 40 41 40 40 39 39 38 38 38 38 38 38 38 38 38 38 38 39 38 38 38 38 38 38 38 40 38 38 38 38 44 52 52 52 52 51 51 50 50
42 44 43 41 40 39 38 39 38 37 36 36 37 37 37 38 37 37 38 38 39 39 39 40 41 40 40 39 39 39 38 38 38 39 37 37 37 37 39 38 39 40 38 38 38 38 38 38 39 38 38 38 39 40 46 52 50 51 50 49 48 47 47
40 40 41 41 40 39 38 37 37 38 36 35 36 37 37 37 37 37 36 37 38 39 39 39 40 40 40 39 39 38 38 38 38 38 39 37 38 38 38 38 38 37 38 38 38 38 38 38 37 37 38 38 39 40 44 46 47 46 45 45 45 44 44

ECMWFFLT1_sfc_temp_084.txt.gz
Temp
59 58 60 60 60 61 59 60 60 60 61 61 60 61 61 62 62 62 63 64 64 64 65 64 64 64 64 64 65 64 64 64 63 62 61 62 60 61 62 61 61 62 62 61 60 58 57 55 59 63 63 63 64 65 66 66 67 66 65 65 66 66 66
60 60 61 61 60 60 58 58 59 59 59 59 59 59 59 60 61 61 61 61 61 62 63 63 64 64 64 64 64 64 64 64 64 63 62 62 62 61 61 61 61 61 61 61 61 60 57 56 57 59 61 63 62 63 65 66 67 67 67 66 66 66 65
59 59 59 57 57 58 57 57 57 57 57 57 57 57 57 58 59 60 59 58 58 59 59 59 61 61 62 63 64 64 64 63 63 64 62 62 63 62 62 61 60 60 60 60 60 59 59 58 55 57 60 61 59 62 64 64 66 67 68 68 67 67 66
56 56 55 54 55 55 54 54 55 55 56 55 55 55 56 57 58 58 56 57 57 57 56 56 56 57 58 60 62 63 64 63 63 63 63 63 63 62 62 62 61 60 59 59 59 60 59 57 57 57 59 61 61 60 63 64 65 66 67 68 67 67 67
54 53 52 51 52 52 52 52 53 54 54 54 54 54 54 56 56 54 55 54 55 54 53 55 55 54 56 57 59 60 61 62 63 63 63 62 62 62 62 62 62 62 61 60 61 61 59 59 58 58 58 61 61 62 66 64 65 65 66 67 68 67 67
52 52 51 51 51 51 51 50 51 51 52 52 52 52 53 54 54 52 52 52 52 53 53 53 53 53 53 55 56 56 57 58 58 59 61 62 62 62 62 63 62 62 62 62 62 61 61 60 59 57 59 60 58 60 64 64 62 64 65 66 67 68 68
52 52 51 50 50 50 50 50 50 50 50 50 51 51 53 54 53 52 52 52 52 52 52 51 51 51 52 52 53 53 54 55 55 55 57 59 61 63 63 62 62 62 62 63 62 61 60 60 59 58 58 59 60 58 61 61 63 61 63 64 66 68 67
51 51 51 51 50 50 50 49 50 50 50 50 51 52 53 53 53 51 52 51 51 50 50 50 50 50 50 50 51 51 52 52 52 53 55 56 57 59 61 62 62 62 62 63 62 62 62 61 60 60 58 56 57 58 58 61 61 60 63 65 66 66 66
53 51 51 51 50 50 49 49 49 49 50 50 51 52 52 53 53 51 51 50 50 49 49 49 49 49 48 48 48 49 49 52 51 51 52 53 54 55 57 59 60 61 63 62 63 63 62 62 61 61 60 59 56 55 58 57 58 59 63 62 64 66 66
50 50 49 49 50 50 50 49 49 49 50 50 50 51 51 53 53 51 50 49 49 49 49 48 48 48 47 47 47 47 47 49 49 49 50 50 51 52 54 55 57 59 61 62 62 63 62 62 62 62 62 59 59 56 55 55 58 59 62 63 61 62 65
50 50 50 50 50 50 49 49 49 49 49 49 50 50 50 51 50 50 49 48 48 48 47 47 47 47 46 46 46 46 47 47 47 47 48 49 49 50 51 52 54 55 58 59 61 62 62 62 61 61 61 61 61 58 57 55 56 62 62 63 64 62 64
50 50 50 50 50 50 49 49 49 49 49 49 49 49 49 50 50 49 48 47 47 47 47 46 46 46 46 45 46 45 46 46 46 46 47 48 48 49 49 49 50 51 53 54 56 59 61 62 61 62 62 62 61 60 59 58 55 59 64 62 62 65 64
50 50 50 50 50 49 49 49 49 48 48 49 48 49 50 50 49 48 48 47 46 46 46 46 46 45 45 45 45 45 46 46 46 46 47 48 49 49 48 48 49 50 51 52 53 55 57 60 61 61 61 61 61 61 60 59 57 57 62 62 62 64 65
50 51 51 51 50 49 50 50 49 49 49 48 48 48 49 50 50 48 47 47 46 45 45 45 45 44 45 45 45 46 46 46 46 47 47 48 49 49 49 49 50 51 53 52 52 54 55 57 59 60 61 60 60 61 60 59 57 57 61 62 61 62 64
49 50 49 49 50 50 50 49 49 49 47 48 48 47 47 48 49 48 47 46 45 45 45 45 44 44 44 44 44 46 46 46 46 46 47 47 48 48 49 49 50 51 52 52 52 53 55 56 57 56 58 60 60 60 62 60 59 58 58 62 60 62 62
49 48 48 48 48 48 49 49 49 48 47 47 48 48 47 47 47 47 46 46 45 45 44 44 44 43 44 44 44 45 45 46 46 46 46 47 48 49 49 49 50 51 51 51 52 53 53 52 52 52 52 55 56 59 61 61 59 58 58 60 62 61 61
48 47 47 47 47 47 48 48 49 47 47 47 46 47 47 47 46 46 45 45 45 44 44 44 43 43 43 43 44 44 45 46 46 47 47 47 48 48 48 48 49 49 50 49 50 50 50 50 49 49 50 51 52 54 57 60 61 59 59 58 61 61 62
46 46 46 46 46 47 47 47 48 48 47 46 46 46 46 47 46 45 44 44 44 44 43 43 43 43 43 44 44 44 45 46 46 47 47 47 48 47 47 48 48 48 48 48 49 48 48 47 48 48 47 48 49 50 53 56 59 60 59 58 59 62 62
45 45 46 46 46 46 46 46 46 47 47 45 45 45 45 45 46 44 45 45 44 44 44 43 43 42 43 44 43 44 46 47 47 47 47 47 47 47 47 47 48 48 47 47 47 47 46 46 46 46 46 46 47 47 48 50 54 58 59 59 59 59 61
45 44 45 45 45 45 45 45 46 45 46 45 45 44 45 44 45 44 44 44 44 44 43 43 43 42 42 42 43 43 44 45 46 47 47 47 46 46 47 47 47 47 46 47 47 46 45 45 45 44 45 44 45 45 44 46 50 53 56 58 59 60 59
44 45 45 45 45 45 45 45 45 45 46 44 44 44 44 43 44 44 44 44 44 44 43 43 43 42 42 42 42 42 43 43 43 44 45 46 46 46 46 47 46 46 47 48 47 46 45 43 43 43 44 43 43 43 43 44 46 49 52 56 58 58 59
44 45 45 44 44 44 44 44 44 44 44 44 45 44 44 44 43 43 43 43 43 44 43 42 43 42 41 42 42 42 42 42 42 43 43 44 45 46 46 46 46 46 47 48 47 47 46 45 43 41 42 42 42 42 42 42 43 45 49 53 56 59 58
44 44 43 43 43 43 43 43 43 43 43 43 43 44 43 43 43 42 42 42 42 42 42 43 43 42 42 42 42 42 42 42 42 42 42 43 44 45 45 45 45 47 46 46 46 44 43 43 44 43 41 41 41 40 40 41 41 43 46 49 53 56 57
43 42 42 42 42 42 42 42 42 42 42 42 42 42 42 41 41 42 41 41 41 41 42 43 41 40 40 41 43 42 41 41 42 42 42 42 42 43 44 45 45 46 46 46 45 43 42 42 41 41 41 42 43 41 40 40 41 43 44 47 51 54 56
42 41 41 41 41 41 41 41 40 40 40 40 41 41 40 40 40 41 41 41 40 41 41 43 40 40 40 40 41 42 41 41 41 41 42 42 43 43 43 43 44 44 45 45 45 44 43 42 41 41 40 40 41 41 41 41 41 42 44 45 48 51 55
41 40 40 40 40 40 40 40 40 39 39 40 40 39 39 39 39 40 40 39 40 40 40 42 40 40 40 39 39 41 42 41 41 41 41 42 42 42 42 42 42 43 44 46 45 43 43 42 42 41 41 42 42 42 41 40 41 44 45 44 46 48 52
40 39 39 40 40 40 40 39 39 39 39 39 38 38 38 38 39 39 39 39 39 40 40 41 40 40 39 39 39 40 41 41 41 41 41 42 42 42 42 41 41 42 43 43 43 42 41 41 41 41 41 42 43 43 42 42 42 42 44 46 47 48 52
40 39 39 39 39 38 38 38 38 39 38 37 37 37 37 37 38 39 38 38 39 39 40 40 39 39 39 39 39 41 41 41 41 41 41 42 42 42 42 42 42 42 42 42 42 42 40 40 40 40 41 41 42 43 44 44 45 45 45 46 46 48 51
38 38 38 38 38 37 37 36 36 38 38 37 37 37 37 38 37 37 38 38 38 38 39 39 39 39 39 39 40 42 41 41 40 40 41 41 42 42 42 42 42 42 42 41 42 39 40 40 40 40 39 40 41 42 43 45 44 44 45 45 46 46 48
38 37 37 37 37 36 36 37 37 38 36 36 36 36 36 36 37 36 37 37 37 37 38 39 39 39 39 39 40 41 41 40 40 40 40 41 41 42 42 43 43 42 42 41 41 38 38 39 39 39 39 39 40 40 41 44 44 42 42 42 41 41 41
38 37 36 36 36 36 36 37 37 38 35 35 36 35 37 36 37 37 37 37 40 37 37 40 40 39 39 39 40 40 40 40 39 39 39 41 42 42 43 45 45 42 41 41 39 38 38 40 39 38 38 38 38 38 40 42 43 43 44 44 43 41 41
36 36 36 36 36 36 36 36 36 36 35 35 36 35 39 36 37 37 37 38 41 38 38 39 40 39 39 39 40 40 40 40 39 38 39 39 41 41 42 43 43 42 41 40 38 38 38 39 39 38 38 37 36 37 38 40 40 42 45 47 48 48 48
37 36 36 36 36 36 37 35 35 35 36 35 36 36 37 36 36 37 37 37 38 37 38 39 40 39 40 40 40 41 40 40 38 38 39 39 39 40 40 41 41 40 39 38 38 38 38 38 39 39 39 36 35 35 39 39 42 44 44 45 47 48 48
37 36 36 37 38 37 35 34 34 34 35 35 35 35 35 36 36 36 37 37 38 38 40 39 40 39 40 40 39 40 40 40 39 39 38 39 39 38 39 40 41 41 39 38 38 38 38 38 39 40 38 36 36 37 39 40 42 43 44 44 45 45 45
38 39 38 37 35 36 35 35 36 34 34 34 35 35 35 36 35 36 36 37 38 37 39 41 40 40 39 39 39 40 40 40 39 39 38 39 39 38 39 40 40 40 38 38 38 38 38 38 38 40 38 37 37 37 39 41 41 42 43 43 42 42 43
39 40 39 37 35 35 34 35 35 35 34 35 34 35 34 34 35 35 36 37 37 37 37 39 40 40 39 39 39 39 39 39 38 40 38 38 38 38 39 39 40 40 38 38 39 38 39 38 39 38 37 37 37 37 39 40 40 40 40 41 41 40 40
37 37 38 36 36 35 35 35 35 35 34 34 34 35 35 34 34 35 34 36 37 37 38 37 39 39 39 39 38 38 38 38 39 39 40 39 39 39 39 39 40 38 38 39 39 39 39 39 38 38 38 37 38 38 39 38 38 38 38 38 38 39 39

ECMWFFLT1_sfc_temp_087.txt.gz
Temp
64 62 63 62 63 63 61 61 62 61 62 63 63 64 65 65 64 63 63 63 63 63 63 62 62 63 65 67 67 69 67 67 66 63 63 64 63 65 67 66 66 67 64 65 65 63 60 58 63 72 75 74 73 74 75 75 76 75 73 73 76 75 72
64 62 63 63 62 62 60 60 60 60 60 61 62 62 63 62 61 61 61 61 61 61 62 62 61 62 62 62 62 63 65 65 66 66 65 65 66 64 65 66 67 66 66 66 66 66 61 60 63 67 68 74 73 73 73 75 76 75 75 75 75 76 74
63 62 62 61 61 61 60 60 61 60 61 61 61 62 62 62 60 59 59 59 58 58 58 59 58 59 60 60 60 60 61 62 63 64 64 65 67 67 67 66 65 65 66 67 66 65 64 64 60 64 66 66 65 70 73 72 74 75 77 76 75 76 75
60 60 60 59 60 59 60 61 60 60 61 60 60 60 60 61 60 60 58 58 58 57 57 57 57 57 58 59 60 60 60 59 59 59 61 63 64 65 66 66 65 64 63 63 65 65 64 61 61 64 66 69 68 67 71 75 74 76 77 76 76 76 76
59 58 57 57 59 59 59 59 60 61 60 60 59 59 58 59 59 58 58 58 57 57 56 57 57 57 57 59 59 59 60 60 59 57 58 59 59 61 64 66 65 67 66 65 66 65 63 64 63 62 63 67 68 71 75 73 76 76 76 77 78 77 77
58 58 57 58 58 58 58 57 58 58 58 57 57 57 57 57 58 57 56 56 56 56 56 56 56 57 56 57 58 58 58 58 58 57 57 57 58 58 58 61 63 65 65 68 66 64 65 65 63 59 65 68 64 66 72 73 72 76 76 76 77 78 79
57 57 57 56 57 57 58 57 57 57 56 55 56 55 57 57 57 56 56 56 56 56 56 56 56 56 56 57 57 56 56 57 57 56 56 56 57 58 58 57 58 59 63 67 65 64 64 64 61 60 61 63 65 65 69 70 74 70 73 76 78 79 79
58 57 57 57 56 56 57 56 56 57 56 55 55 56 57 56 56 56 55 55 55 55 55 55 54 55 55 55 56 54 55 54 54 54 54 54 54 54 54 55 55 58 60 61 62 64 67 65 64 63 62 59 62 65 66 72 73 72 72 76 79 78 78
58 58 57 57 56 56 56 56 55 55 56 56 56 56 56 56 55 55 55 54 55 55 55 54 54 55 55 54 54 53 52 53 52 52 53 53 52 52 53 54 55 56 58 58 58 59 60 62 63 64 63 61 57 56 64 64 68 71 77 74 77 78 78
57 56 55 55 55 56 57 56 56 55 55 56 56 56 56 56 55 55 55 54 54 54 54 54 54 55 55 53 52 52 51 53 53 52 52 53 53 53 53 53 54 55 56 57 57 58 58 59 61 61 62 59 59 56 56 60 65 67 72 76 71 76 78
57 57 57 56 56 55 55 56 56 55 54 55 56 56 56 55 55 55 54 54 54 54 53 54 54 54 54 53 52 53 53 53 53 54 53 53 53 53 54 54 54 54 56 56 57 58 58 58 58 59 59 60 60 57 57 55 57 66 68 73 75 74 77
58 57 57 57 56 55 55 55 54 54 55 55 55 55 55 55 54 54 54 54 54 53 53 53 53 53 53 53 53 53 52 53 53 53 53 54 54 54 53 53 55 55 56 55 56 57 58 59 57 57 57 57 57 57 56 56 54 62 69 66 71 76 75
58 57 57 56 55 55 55 55 55 53 53 55 55 55 55 54 54 54 54 54 53 53 53 53 53 53 53 52 53 52 52 52 52 52 53 54 54 53 54 54 54 54 55 55 55 56 56 56 55 54 55 55 55 55 54 53 52 55 66 68 70 73 76
56 57 56 56 55 54 54 54 54 54 55 54 55 54 54 54 54 54 54 54 54 53 52 52 52 53 53 52 53 52 52 53 52 53 53 53 55 54 54 54 55 55 55 53 54 54 54 54 53 53 53 53 53 53 52 50 48 52 59 67 69 70 72
56 56 55 55 54 55 54 54 54 54 53 54 54 54 54 54 54 54 54 54 53 53 53 53 52 52 52 52 52 52 52 52 52 52 53 54 55 55 54 53 53 53 54 53 53 53 53 52 52 51 51 50 50 50 52 49 48 48 50 58 63 69 70
56 55 54 54 54 54 54 54 55 54 53 54 54 54 53 54 53 54 54 53 53 53 53 53 52 52 51 51 51 51 52 52 52 51 51 52 54 54 53 52 52 52 52 51 52 52 53 52 52 50 49 50 49 49 50 50 47 46 47 51 58 61 65
54 54 54 54 53 54 54 54 55 54 54 54 53 54 54 54 53 53 53 53 53 53 52 52 52 52 51 51 52 52 52 52 53 53 52 53 53 52 52 51 51 51 51 50 50 51 52 51 50 49 49 50 49 48 49 49 48 46 47 48 53 57 61
54 53 53 53 53 54 54 54 54 54 54 53 53 53 54 54 53 53 52 52 52 52 52 52 51 51 51 52 52 51 52 52 52 52 52 52 52 52 51 51 50 50 49 48 49 49 50 48 49 48 48 49 49 49 49 48 48 48 47 46 49 54 58
53 53 53 53 53 53 53 54 54 54 54 53 53 53 53 53 53 53 53 53 53 52 52 52 52 51 52 52 51 51 51 52 52 52 52 52 52 52 51 51 50 49 48 47 47 48 48 47 47 46 46 47 48 48 47 48 49 49 48 47 48 50 55
53 53 53 53 53 53 53 53 53 53 54 53 52 52 52 53 52 53 52 52 52 52 52 51 51 50 51 51 51 51 51 51 51 52 52 52 53 53 52 51 50 49 48 48 47 46 46 46 45 45 45 45 46 45 45 46 48 48 48 47 49 51 53
53 53 53 53 53 53 53 53 52 53 53 52 52 52 52 52 52 53 52 52 52 52 52 51 50 49 50 50 51 51 51 50 51 51 51 52 53 52 52 51 50 49 49 49 47 47 47 45 45 44 45 45 45 45 44 45 46 47 47 47 48 50 52
54 54 53 53 52 52 52 52 52 52 52 51 51 52 52 52 52 52 52 52 52 51 50 49 48 47 47 49 50 50 51 51 51 51 51 52 52 52 51 50 50 49 49 48 46 46 46 45 45 43 44 45 44 43 43 43 44 44 45 45 46 49 50
53 53 52 52 51 51 51 51 51 51 51 51 51 52 52 52 52 51 51 51 51 50 50 49 44 42 42 45 49 50 50 51 52 51 50 50 51 51 50 49 49 48 47 46 46 44 43 43 44 45 44 44 43 43 42 42 42 43 43 43 44 46 46
53 52 52 51 51 51 51 50 50 50 50 50 50 51 51 51 50 50 50 50 50 50 49 47 40 40 40 41 46 50 50 50 52 51 50 49 48 48 49 49 48 48 48 47 47 44 43 43 42 42 42 43 43 43 41 40 41 42 42 42 44 44 44
52 52 51 51 51 51 50 50 49 49 49 49 50 50 49 50 49 50 50 51 50 50 50 43 39 40 40 40 42 49 51 50 50 50 49 48 48 47 47 47 47 48 48 48 48 47 45 43 42 42 41 41 41 42 42 42 41 41 41 41 42 43 44
52 51 51 51 51 50 50 49 49 48 48 49 49 49 49 49 49 49 50 50 50 50 50 42 40 40 40 40 40 45 51 51 50 49 48 47 47 47 46 46 47 47 48 48 48 47 45 45 44 43 43 43 44 44 41 40 41 43 44 41 41 42 43
51 51 51 51 50 50 49 48 48 48 49 49 48 48 48 48 49 49 49 49 49 50 49 43 40 40 40 39 39 43 50 49 49 50 50 48 48 47 47 46 46 46 48 47 47 45 44 44 45 45 46 47 47 47 44 43 43 42 44 44 43 42 45
51 51 51 50 50 49 48 48 48 49 49 48 48 48 48 48 48 48 49 49 49 49 48 41 39 39 39 40 39 44 51 50 50 50 50 50 50 50 49 48 47 47 47 47 47 44 43 43 43 44 45 45 46 47 48 48 48 48 46 46 45 44 45
51 51 51 50 49 48 48 48 47 48 48 49 49 49 49 49 48 48 49 49 49 49 49 41 39 39 39 39 40 51 51 51 50 50 50 50 50 50 50 49 48 48 48 48 45 40 41 43 44 44 43 44 45 46 48 48 45 44 45 45 45 45 45
50 50 50 50 49 48 47 47 48 49 48 48 48 48 48 48 49 49 48 49 48 49 50 44 39 39 39 39 44 51 51 51 51 50 50 50 51 51 51 50 49 48 48 48 43 38 39 40 44 43 42 42 43 45 46 48 45 42 42 42 41 41 41
51 50 50 49 48 48 48 48 48 48 48 48 48 48 50 49 50 49 48 48 47 48 49 46 40 39 39 39 42 50 51 50 50 50 50 51 51 51 51 47 48 48 46 46 40 39 39 42 44 42 41 40 40 42 44 45 44 45 43 43 43 43 43
52 51 50 49 49 48 48 48 48 49 49 49 49 50 50 50 49 50 49 48 45 47 49 47 42 39 39 39 43 50 50 50 49 49 50 50 51 51 51 50 46 45 44 42 38 39 38 42 44 43 41 39 38 40 41 41 40 41 43 44 46 47 47
51 51 50 49 49 48 49 49 48 48 49 50 50 50 50 49 49 49 49 49 48 48 47 49 47 39 39 39 39 47 51 48 47 48 49 50 49 50 50 50 49 43 39 39 38 38 39 39 43 44 42 37 35 35 38 39 41 41 42 42 43 45 45
51 50 51 50 49 49 49 48 48 48 48 49 49 48 48 48 49 49 49 49 49 49 48 47 47 40 40 39 39 41 50 48 47 49 50 50 50 49 49 49 50 44 39 39 39 39 39 39 40 43 41 38 37 38 39 39 40 41 41 41 42 42 43
51 50 51 50 49 48 48 49 48 48 49 48 48 47 48 48 49 49 49 49 49 49 48 44 46 43 39 39 39 39 45 47 45 48 48 49 49 49 49 49 49 44 38 39 39 39 39 39 39 43 40 38 37 37 39 41 40 40 39 40 40 40 41
50 51 50 50 49 48 49 49 48 48 48 48 48 48 47 48 48 48 49 50 50 49 49 49 42 44 41 38 38 39 38 42 39 47 48 48 48 48 49 48 48 42 38 39 39 39 40 39 42 42 38 38 38 38 39 40 38 38 38 38 38 37 38
51 51 50 50 50 49 48 48 49 49 48 49 49 49 49 48 48 48 48 48 49 50 50 50 45 41 43 39 39 38 38 38 38 44 48 49 49 49 48 47 45 39 39 39 39 40 40 40 42 39 39 38 38 39 39 39 37 37 37 37 36 36 36

ECMWFFLT1_sfc_temp_093.txt.gz
Temp
69 67 68 68 69 69 68 68 68 68 69 71 70 71 71 72 71 71 71 71 71 71 71 71 70 70 70 70 71 71 70 69 68 65 64 67 64 65 68 68 69 70 70 70 68 64 63 60 65 75 79 79 80 81 82 83 83 83 81 81 83 82 78
70 69 70 70 68 68 67 67 67 67 67 68 70 69 70 71 71 70 70 70 69 69 71 71 70 70 69 69 69 67 67 67 67 65 65 65 64 64 65 65 67 68 69 70 70 69 63 61 63 67 70 77 78 79 80 81 83 82 83 82 83 83 81
70 71 71 68 68 68 67 67 66 66 67 67 68 69 69 70 69 69 69 69 68 68 69 69 68 68 68 69 68 67 66 65 65 65 65 63 64 65 65 64 63 65 65 65 66 66 66 66 63 65 69 69 68 72 77 78 81 83 84 83 83 85 83
70 70 69 68 69 68 67 66 66 65 66 67 68 67 67 68 68 68 68 68 68 67 67 68 67 67 68 67 67 67 66 65 64 65 64 63 63 64 64 65 64 63 61 61 62 63 62 61 61 63 66 70 70 68 73 78 78 82 84 83 83 83 83
70 69 68 67 67 67 66 65 66 65 65 67 67 66 66 67 67 66 67 67 67 66 66 67 67 67 68 68 66 65 64 65 64 64 63 62 61 63 63 64 65 66 67 65 64 63 62 62 61 61 63 67 67 70 74 73 78 78 80 83 85 85 85
68 68 68 67 67 66 66 65 64 64 65 65 65 65 65 65 66 65 65 65 65 65 65 66 66 66 66 66 65 64 64 64 63 63 62 62 61 61 61 64 65 66 64 64 63 62 63 63 63 61 65 67 63 66 72 73 73 78 80 81 84 86 85
67 66 66 66 65 65 65 63 63 65 65 63 64 63 65 66 66 65 65 65 66 66 66 66 66 66 66 67 65 64 64 64 64 63 63 63 62 62 63 63 64 65 64 64 63 62 60 60 59 58 58 60 62 63 66 69 73 70 74 80 82 84 84
66 65 64 64 64 64 63 63 64 65 64 64 64 64 66 65 65 65 65 65 65 65 65 65 65 66 65 66 65 64 64 65 64 64 64 63 62 62 62 63 64 65 64 65 65 63 62 59 58 57 55 52 55 58 59 64 66 68 70 73 77 77 78
65 64 64 63 63 63 62 63 64 64 65 65 65 65 65 65 65 65 65 64 65 65 65 65 65 65 65 64 64 64 63 65 64 63 63 63 62 63 62 63 64 64 64 64 64 63 63 62 61 61 59 57 52 50 55 56 59 62 68 67 71 74 75
63 63 62 62 62 62 63 64 64 64 65 64 64 65 64 65 65 65 64 64 64 64 64 65 65 65 65 64 64 63 63 64 64 63 63 63 63 63 63 63 63 63 62 63 63 62 63 63 63 63 62 59 57 52 51 52 54 56 61 65 62 68 73
64 64 64 63 63 63 64 64 64 64 64 65 65 65 65 65 64 65 64 64 64 64 64 65 65 65 65 64 64 64 64 64 64 64 63 63 62 63 63 63 62 62 61 61 61 61 62 62 62 61 62 62 61 56 54 51 52 57 59 64 65 64 68
65 65 65 65 65 63 63 64 64 64 64 65 65 65 65 65 65 64 65 65 64 64 64 64 64 64 64 63 63 63 64 64 63 63 63 63 62 62 62 61 61 60 60 60 60 60 61 61 60 60 60 61 60 59 56 55 51 57 61 57 62 66 66
66 65 64 64 64 64 64 64 64 63 63 65 65 65 65 65 65 65 64 65 64 64 64 64 64 64 64 63 62 63 63 63 63 62 63 63 62 62 61 61 60 59 60 60 59 59 59 59 58 57 58 58 58 58 57 55 52 51 58 58 60 62 65
64 65 64 64 64 64 64 64 64 64 65 64 65 64 64 65 65 65 65 64 65 64 64 63 63 63 63 62 62 62 63 63 63 62 62 61 62 61 61 61 60 60 60 58 58 59 59 58 58 57 58 57 57 57 56 53 50 51 55 59 58 59 62
64 64 63 64 63 64 64 63 64 64 63 64 65 65 65 64 65 65 64 65 64 64 64 63 63 63 62 62 62 62 62 62 61 61 61 61 61 61 60 60 59 59 59 58 57 57 58 56 56 56 56 56 56 55 56 53 52 50 49 54 56 59 59
64 63 63 63 63 63 63 64 65 64 64 63 65 65 64 64 64 65 65 63 63 63 63 63 62 62 61 62 62 61 61 61 60 60 60 60 61 61 60 59 58 58 57 56 55 55 55 54 55 55 54 55 54 54 56 55 52 49 49 51 55 56 58
63 63 62 63 62 63 64 64 64 64 64 64 63 64 65 65 64 63 63 63 63 62 61 61 61 62 61 62 61 61 62 61 61 61 60 60 60 60 59 58 57 57 56 54 54 54 54 54 53 54 53 54 54 54 55 55 54 51 50 49 53 55 57
62 62 61 62 62 63 63 64 64 64 63 63 64 64 65 65 64 63 61 62 61 61 60 60 60 60 61 61 61 61 61 61 61 61 60 60 59 59 59 58 58 57 56 53 53 52 53 52 53 53 53 53 53 54 54 53 52 52 50 48 50 53 56
61 61 61 61 62 63 63 63 64 64 65 63 63 63 63 63 64 63 62 61 61 60 59 59 58 59 60 61 61 61 61 61 61 61 61 60 60 60 58 58 58 57 56 54 52 52 53 52 52 52 52 52 53 53 51 51 51 50 49 49 49 49 53
62 62 61 62 62 63 63 63 64 63 64 63 63 63 63 62 62 62 61 60 59 58 58 56 55 56 58 60 61 61 60 60 60 59 60 60 59 59 59 59 59 57 56 55 53 52 53 52 52 51 52 51 52 50 49 49 49 49 49 48 49 50 50
62 62 62 63 62 62 62 62 62 63 63 62 63 63 63 62 62 61 60 59 58 58 56 55 53 53 55 56 59 60 60 59 59 59 59 60 60 60 59 59 59 58 56 55 54 53 53 51 51 51 52 51 50 49 48 49 48 48 48 48 47 47 49
63 63 63 62 62 61 62 62 63 63 62 62 62 63 63 63 62 60 60 58 58 56 54 52 51 49 51 54 56 60 59 60 59 59 59 60 60 60 60 59 60 58 56 53 51 50 49 49 50 49 50 50 49 48 48 48 48 48 48 47 46 48 48
63 63 62 62 62 62 62 62 62 62 62 62 62 62 62 62 62 60 58 58 57 54 53 51 45 42 43 48 53 57 60 59 60 59 59 58 59 59 59 59 59 55 53 52 50 47 46 46 47 49 49 49 49 48 47 47 47 47 46 45 46 46 45
63 62 62 62 62 62 62 61 61 61 61 61 60 61 61 60 60 59 58 57 55 54 52 49 41 40 41 40 48 53 59 59 60 59 59 58 58 58 58 59 59 57 56 54 55 48 47 46 45 44 45 45 46 48 47 46 46 47 46 45 46 45 44
63 62 62 62 62 62 62 62 61 61 60 59 60 60 59 59 59 59 58 57 55 54 52 43 40 40 41 40 42 49 58 59 59 59 59 59 59 58 57 56 57 57 57 56 55 54 51 47 45 45 44 44 44 44 44 47 47 46 46 45 44 44 44
63 62 63 62 62 62 62 61 60 60 59 59 59 58 59 58 59 59 57 56 55 54 53 42 41 40 41 40 40 44 59 59 60 59 59 59 59 58 57 56 55 56 56 53 54 52 51 51 48 46 47 48 48 47 44 43 44 48 49 46 44 43 43
63 62 62 62 62 62 61 60 59 60 59 59 58 58 58 57 58 58 58 57 55 54 52 44 40 40 41 39 40 42 60 59 60 59 59 60 59 59 57 56 55 54 55 55 53 51 50 50 50 52 53 53 53 52 48 47 46 46 47 48 45 43 45
62 62 63 62 61 61 60 59 60 60 60 59 59 58 58 57 57 58 58 58 56 53 50 40 40 40 40 40 40 44 60 60 60 60 60 60 60 59 58 56 55 54 54 54 52 47 48 48 49 51 52 52 53 53 53 54 54 52 50 49 48 47 47
62 63 62 62 60 60 59 59 59 60 60 59 59 59 59 59 57 57 58 58 56 54 51 40 40 40 40 40 41 57 60 60 59 60 60 60 61 60 58 57 56 54 54 54 48 41 43 46 49 51 51 52 53 53 54 52 47 46 49 50 50 49 48
62 62 62 61 60 59 59 59 59 61 59 59 58 58 58 58 58 57 57 57 56 55 53 44 40 40 40 40 45 58 59 59 59 59 59 59 61 60 57 58 56 55 53 53 46 40 40 42 49 50 50 51 52 52 52 53 49 46 45 44 43 43 42
62 62 62 61 59 59 60 60 60 61 60 59 58 59 59 58 58 57 56 55 56 55 53 46 40 40 40 40 44 55 58 57 57 58 59 59 60 60 55 49 53 54 52 52 43 40 41 44 49 49 50 50 50 50 51 52 52 51 48 46 45 44 43
63 62 61 60 60 59 59 60 60 61 60 60 60 61 61 59 58 58 57 56 53 55 55 49 42 40 40 41 45 54 57 57 56 55 57 58 59 59 59 54 48 48 50 47 41 41 40 44 48 49 49 51 49 49 50 51 49 50 51 50 48 46 45
62 61 61 60 60 60 60 60 60 60 61 62 61 61 60 59 58 58 58 57 56 56 55 54 49 40 41 41 41 50 56 54 53 54 56 58 56 58 58 58 54 44 42 42 41 41 41 40 46 49 50 51 49 48 52 50 49 51 51 49 46 45 44
61 61 61 60 60 60 61 60 60 60 60 61 60 59 58 59 58 58 58 58 57 56 56 55 50 40 42 41 40 43 55 53 52 52 54 56 57 56 57 57 57 48 43 42 42 41 41 41 41 47 51 51 50 49 46 48 49 50 51 48 46 44 44
61 60 61 60 59 59 60 61 60 60 61 59 58 58 59 59 59 59 59 58 58 57 54 50 56 44 42 42 41 39 50 52 51 52 52 55 56 56 56 56 56 50 43 43 41 41 40 41 40 48 52 45 42 40 46 48 52 53 51 48 46 43 42
59 60 60 60 59 58 59 60 60 60 59 59 58 58 58 59 59 59 59 60 60 59 57 54 46 52 44 42 41 41 39 45 43 51 52 52 54 55 56 56 55 48 43 42 41 40 41 40 43 51 44 41 42 40 44 55 54 52 50 47 45 42 40
60 60 60 60 60 59 59 59 60 60 60 60 60 59 60 60 60 59 58 59 59 60 60 59 47 45 50 45 42 40 39 39 39 50 52 53 55 55 55 54 52 44 41 41 40 41 41 42 49 43 42 42 41 44 55 54 53 51 49 46 44 41 39

ECMWFFLT1_sfc_temp_096.txt.gz
Temp
66 65 66 67 67 67 66 66 66 65 66 68 67 67 67 67 67 66 66 65 66 66 67 65 64 64 65 66 65 65 64 64 63 60 61 61 58 60 62 62 63 65 65 64 64 60 58 56 59 67 68 68 69 70 72 72 73 74 74 74 77 77 73
68 67 68 67 67 67 65 65 65 65 65 66 66 66 66 67 66 66 65 65 64 65 66 65 64 65 64 63 63 62 61 61 61 62 60 58 59 58 59 59 61 61 62 63 63 61 58 56 56 58 60 66 66 67 69 71 72 73 73 74 75 77 76
68 68 68 66 66 66 64 63 63 64 65 63 64 65 65 66 65 65 65 64 63 64 65 64 64 64 63 62 62 61 61 60 61 60 59 58 59 60 59 59 58 59 59 59 58 57 57 58 54 56 58 59 59 62 66 67 70 72 74 74 74 77 77
68 67 66 65 66 65 63 62 63 63 64 63 63 63 64 65 64 65 64 64 63 63 63 63 62 63 62 62 62 62 61 60 59 60 59 59 59 58 59 59 58 59 56 55 55 56 56 54 54 54 57 60 58 57 62 66 66 69 72 73 73 75 75
68 67 65 64 65 64 63 62 63 63 62 62 62 61 61 63 63 62 63 63 62 62 62 62 62 63 63 62 61 61 60 60 60 60 59 57 58 58 58 59 59 60 59 57 57 57 56 55 54 54 54 56 56 58 62 63 66 67 68 70 73 71 72
67 67 65 64 64 63 63 62 62 61 61 60 60 61 61 61 62 61 61 61 61 61 62 62 62 63 62 61 61 60 60 60 59 59 58 57 58 57 57 59 60 60 58 59 58 57 57 56 55 52 54 56 52 54 59 61 60 65 66 68 69 69 70
65 65 64 63 63 62 63 63 62 61 60 60 60 60 61 62 61 61 61 61 62 62 62 62 62 62 62 61 61 60 60 60 60 59 59 58 58 58 58 58 59 58 57 58 58 57 56 55 53 53 52 53 54 53 57 58 61 58 62 66 67 67 68
64 63 62 62 62 62 63 63 62 62 60 60 60 61 62 61 61 61 61 61 61 61 61 61 62 61 61 61 60 60 60 60 59 59 59 58 58 58 58 58 58 57 57 58 58 57 57 56 55 54 52 49 50 52 52 56 57 58 58 62 65 66 66
63 62 61 61 61 62 62 62 61 61 61 60 61 61 61 62 61 61 61 61 61 61 61 61 61 61 60 59 59 59 59 62 59 59 58 58 57 57 57 57 57 56 56 57 57 56 57 56 56 55 53 52 48 45 50 49 51 53 59 58 62 64 63
61 60 60 60 60 62 62 61 60 61 61 61 61 62 61 61 61 61 60 60 60 61 61 61 61 61 60 59 59 59 58 59 59 58 58 57 57 57 57 56 55 55 55 57 56 56 56 55 55 54 54 51 51 47 45 45 47 48 54 57 53 58 61
61 61 61 61 62 61 61 61 61 60 60 62 62 62 61 61 61 62 60 60 60 60 60 61 61 61 60 58 59 59 59 59 58 58 58 57 57 57 57 56 56 55 56 55 55 55 55 54 53 53 53 53 52 48 47 44 45 50 50 54 55 54 58
62 62 63 62 62 61 61 61 61 60 61 61 61 61 61 61 60 60 60 60 60 60 60 60 60 59 59 58 58 58 59 58 57 57 57 58 57 57 56 55 55 54 55 54 54 55 54 53 52 53 53 53 52 51 49 48 43 49 52 49 53 57 56
63 63 62 62 61 61 62 61 61 60 60 61 61 61 61 61 61 60 60 61 60 60 60 59 59 59 58 57 57 57 58 58 58 57 57 58 58 57 56 55 54 54 54 54 53 53 53 53 53 52 52 51 51 51 50 48 45 45 51 51 52 54 57
62 63 62 62 61 61 61 61 61 61 62 60 61 61 61 61 61 61 61 60 60 59 59 58 59 58 58 58 57 58 58 58 58 56 57 56 57 56 56 55 54 54 54 52 51 52 52 52 52 52 52 51 50 51 50 48 46 46 49 53 52 52 54
62 62 61 61 60 61 61 60 60 61 60 61 62 61 62 61 61 60 60 60 59 59 59 59 58 58 57 57 57 58 57 57 56 56 56 56 56 56 55 54 54 53 53 52 51 52 52 51 51 51 51 51 50 50 51 49 47 46 44 49 50 53 52
62 61 61 60 60 61 61 61 62 60 60 60 61 61 61 61 60 60 59 58 58 58 58 58 57 58 57 57 57 56 57 56 56 55 55 55 55 55 54 54 53 53 53 51 51 51 51 50 51 50 50 50 49 50 51 51 48 45 44 45 49 49 51
61 60 60 60 60 60 61 61 62 61 61 60 61 60 61 61 60 59 58 58 57 56 56 56 57 58 58 58 57 57 57 56 56 56 56 55 55 55 54 53 52 52 52 50 50 50 50 50 50 49 49 49 49 50 50 50 50 47 46 44 48 49 50
59 59 59 59 59 60 60 61 61 61 61 60 61 61 61 61 59 58 56 56 55 54 54 54 54 55 57 57 57 57 57 57 56 56 55 55 56 54 54 53 53 52 51 49 49 49 49 48 49 49 48 49 49 49 49 49 49 49 47 45 47 50 51
59 59 59 59 59 60 60 61 61 61 62 60 60 60 59 59 59 57 57 56 55 54 53 52 52 53 54 57 57 56 56 56 56 56 55 55 55 55 54 54 53 52 51 49 49 49 48 48 48 47 47 47 48 49 48 49 49 48 48 47 47 47 50
59 59 59 59 60 60 60 60 61 61 61 60 59 59 58 57 57 56 55 54 53 52 51 50 50 50 52 53 54 57 55 55 55 54 55 56 56 55 55 54 53 52 51 50 49 48 47 47 47 46 47 47 48 48 47 48 48 47 47 47 47 48 47
59 60 60 60 60 59 60 59 60 60 61 60 59 59 58 57 56 56 54 53 53 52 51 49 48 48 49 51 51 55 56 54 55 55 55 55 55 55 54 54 53 53 52 51 48 47 47 46 46 45 46 47 47 47 46 47 47 47 46 46 45 45 47
60 60 60 60 59 59 59 59 59 59 59 59 59 59 59 58 56 55 54 53 52 51 49 47 45 44 45 47 50 51 54 56 55 54 54 54 55 54 54 54 54 53 54 53 49 49 48 48 46 44 45 45 45 45 46 46 46 46 46 45 45 46 45
60 59 59 59 59 59 59 59 59 59 59 59 59 59 58 57 56 55 53 52 51 49 48 47 44 42 43 44 46 50 51 55 55 54 54 53 53 53 53 53 54 56 54 52 49 47 46 46 47 46 45 45 44 44 45 46 46 46 45 44 44 44 43
60 59 59 59 59 59 59 59 58 58 58 58 57 57 57 56 55 54 53 52 50 49 48 45 42 40 41 41 45 47 49 53 54 54 54 53 52 52 52 53 52 54 54 52 50 47 46 45 45 45 45 46 46 44 44 45 45 45 44 43 44 44 43
59 59 59 59 59 59 59 58 57 57 56 56 56 57 56 55 54 53 53 52 50 49 47 43 40 41 41 41 42 44 49 54 54 53 53 53 53 53 52 52 52 52 52 51 49 48 48 47 45 45 44 45 44 44 45 45 44 44 44 43 43 43 43
60 59 59 59 59 59 58 58 57 56 56 56 56 56 56 55 54 53 52 51 49 48 47 42 41 41 41 41 41 43 50 54 54 54 53 53 53 53 51 51 51 51 51 53 50 48 47 47 46 46 46 47 48 48 45 43 44 47 46 45 44 44 44
59 59 59 59 59 58 57 56 56 56 56 55 55 55 55 54 54 54 53 51 49 48 46 42 41 41 41 41 41 42 50 55 55 55 54 54 54 52 51 50 50 50 50 50 48 46 46 45 45 46 47 48 49 50 48 47 46 46 47 47 45 43 46
59 59 59 59 58 57 56 56 56 56 56 55 54 54 54 53 54 54 53 52 50 48 46 41 41 41 41 41 41 45 53 56 55 54 54 54 54 53 52 52 50 49 49 48 48 45 44 43 44 45 47 47 48 49 50 50 50 49 48 48 47 47 47
59 59 58 58 57 56 56 56 55 55 55 55 55 54 54 54 54 54 53 52 50 48 46 41 41 41 41 41 43 50 54 54 54 54 53 53 54 53 52 51 49 48 47 48 47 43 43 43 44 45 45 46 47 48 50 51 48 47 48 48 48 48 47
58 58 58 57 56 56 55 55 55 56 55 54 54 53 53 53 54 53 53 53 50 48 47 42 41 41 41 41 44 49 52 53 53 53 53 53 54 53 51 51 50 48 48 48 46 41 42 43 44 45 45 45 46 47 48 50 49 47 46 45 45 43 42
58 58 57 57 56 55 56 56 56 56 55 54 53 54 54 53 53 53 52 52 52 48 46 44 41 41 42 41 44 48 52 51 51 51 51 53 54 52 49 52 52 48 48 48 44 41 42 43 44 44 44 44 44 45 47 49 50 50 48 47 45 44 45
59 58 57 56 56 56 56 56 56 56 56 56 55 55 55 53 52 52 52 51 53 51 48 46 42 41 41 41 44 47 51 50 48 48 49 50 52 53 51 49 47 47 48 46 42 42 41 43 43 44 44 43 43 45 47 48 47 46 47 47 48 50 48
58 58 57 56 56 56 56 56 56 56 55 57 56 56 56 55 53 52 52 52 52 52 50 48 46 43 42 41 41 45 50 48 46 47 48 50 51 51 51 52 50 45 44 43 43 42 42 41 42 43 43 43 44 44 48 47 47 46 46 48 49 49 48
57 57 58 57 57 56 57 56 56 56 56 56 55 54 54 53 53 53 53 53 52 52 52 50 46 42 44 42 41 41 48 48 47 47 47 49 49 49 50 51 51 48 44 43 43 42 42 41 41 42 43 44 46 47 44 44 45 47 48 49 49 48 47
58 57 58 57 56 56 56 57 56 56 55 54 54 53 54 54 53 53 53 54 54 52 51 51 50 44 44 43 42 39 45 48 47 46 47 48 48 49 50 50 49 48 44 43 42 42 41 41 41 42 45 43 42 41 44 45 47 49 49 48 48 47 45
57 57 57 57 56 55 56 56 56 55 55 54 54 53 54 54 53 53 53 54 54 53 51 50 47 49 45 44 42 41 40 42 42 45 46 46 47 49 49 49 50 48 43 42 42 41 41 40 42 46 43 41 42 42 43 49 49 48 47 47 46 45 44
57 57 57 56 56 55 55 55 55 55 55 54 54 53 53 54 53 53 53 53 54 53 52 50 47 46 49 44 42 42 41 40 39 44 46 46 48 49 48 48 47 43 41 41 41 41 40 41 45 43 42 42 42 45 49 49 48 47 46 46 45 44 43

ECMWFFLT1_sfc_temp_102.txt.gz
Temp
59 58 59 59 59 60 59 59 59 58 58 58 58 58 58 59 58 57 57 57 57 58 58 55 55 54 55 56 56 54 54 54 52 51 50 50 49 50 54 53 53 54 53 52 50 47 45 43 45 50 53 53 53 54 55 56 57 57 57 58 60 59 58
61 59 60 60 59 59 57 58 58 57 57 58 58 57 57 57 58 57 56 56 56 56 57 55 55 55 54 54 53 53 52 52 53 53 51 50 50 49 50 50 50 50 50 50 50 49 45 42 43 44 45 49 50 51 53 54 56 57 57 57 58 58 57
59 58 58 57 57 57 56 55 55 55 56 56 56 56 56 56 56 56 56 55 55 56 57 54 54 54 54 53 53 53 53 52 52 52 51 50 51 50 50 49 47 47 47 47 47 46 45 45 41 42 44 43 43 47 51 52 54 55 56 56 56 56 56
58 58 56 56 56 56 55 54 54 54 54 54 55 55 55 55 56 57 55 56 56 56 55 54 53 53 53 53 53 53 53 52 52 51 52 51 51 50 49 49 47 46 45 43 43 44 43 41 41 41 43 45 44 43 47 52 53 54 55 55 55 55 55
58 57 56 56 56 55 54 53 53 54 53 53 53 53 54 54 55 54 55 54 55 53 53 53 53 53 53 53 53 53 52 52 52 52 50 49 49 49 49 49 48 48 47 46 45 45 43 42 42 40 41 44 43 44 49 49 51 52 53 53 54 54 54
58 58 57 56 56 55 54 53 53 52 52 52 52 52 52 53 54 53 53 53 53 54 53 53 53 53 53 53 53 52 52 51 51 50 49 48 48 48 47 48 48 48 47 47 46 45 44 44 42 40 42 43 39 42 45 47 46 50 52 52 53 54 53
57 57 56 56 56 55 54 53 53 52 51 51 52 52 52 53 53 53 53 53 52 53 54 53 53 53 53 52 52 52 51 51 51 50 50 49 48 48 48 47 47 47 47 47 46 45 44 43 41 40 40 41 41 41 43 44 47 45 47 52 53 53 53
57 56 56 57 56 55 54 53 52 52 52 52 52 53 54 53 53 53 54 52 52 52 52 52 53 52 52 52 52 52 52 51 50 50 49 48 48 47 47 46 47 46 46 46 46 45 45 44 43 42 40 38 38 39 40 42 43 44 45 49 52 52 52
58 57 57 58 58 57 55 54 52 52 52 51 53 53 53 53 52 52 52 52 52 52 52 52 51 51 51 50 50 51 51 52 50 49 48 48 47 46 46 46 46 45 46 46 46 45 44 45 44 43 42 40 36 35 39 38 40 42 47 45 48 51 51
56 57 57 57 57 56 55 53 52 51 52 52 53 52 52 52 52 52 51 51 51 52 52 51 51 50 50 50 50 50 49 50 50 48 48 47 46 46 46 45 45 45 45 46 46 46 45 45 44 44 42 41 40 36 35 35 38 39 44 46 43 48 51
56 57 58 57 57 55 52 52 52 52 52 53 53 53 51 51 52 53 50 50 50 51 51 51 51 50 50 50 49 49 49 49 49 48 48 47 46 47 46 45 45 44 45 45 44 45 45 44 43 43 42 43 41 38 38 36 37 41 41 45 46 45 49
56 56 56 56 55 53 51 51 51 50 51 52 52 51 50 50 50 50 50 50 50 50 50 50 50 50 50 49 50 49 49 49 47 46 47 48 47 47 45 45 44 44 45 44 44 44 44 44 43 42 42 43 43 41 40 39 36 41 44 41 45 49 48
56 55 55 55 53 52 51 51 50 50 50 51 50 50 50 50 50 49 49 49 49 49 49 49 49 49 49 48 48 48 48 48 47 46 46 47 47 46 45 44 44 44 43 43 43 43 43 44 43 42 42 42 41 41 41 40 38 38 43 43 45 47 49
54 55 54 54 52 51 51 52 51 50 51 50 50 50 49 49 49 49 48 49 48 47 47 47 48 48 48 48 48 48 47 47 46 45 46 45 45 45 45 44 43 44 43 43 42 43 42 42 42 42 43 41 40 41 40 39 37 38 42 44 44 45 48
55 55 53 52 51 50 50 50 50 51 49 49 50 49 48 48 48 48 47 47 46 47 47 47 46 48 48 48 47 49 47 46 45 45 45 43 43 45 43 43 43 43 42 41 41 41 41 41 41 40 40 41 39 40 42 40 38 38 37 42 43 46 46
54 53 51 50 50 50 50 51 52 50 49 49 49 48 47 47 47 47 46 45 45 45 45 45 46 46 46 47 47 46 47 46 46 45 45 43 43 42 43 43 41 41 43 40 40 40 40 40 40 40 40 41 40 40 41 41 39 37 37 39 43 43 44
53 52 51 50 50 50 50 50 51 50 49 48 48 47 47 46 46 45 45 44 44 44 44 44 45 44 44 44 47 46 45 45 45 45 45 43 42 43 41 41 41 40 41 39 39 39 39 39 39 40 39 40 40 40 41 41 41 38 38 37 41 42 44
51 51 50 50 50 50 49 50 50 49 48 48 47 47 47 46 45 44 44 43 43 42 42 43 43 43 44 43 43 44 44 44 44 45 44 44 48 42 43 41 41 41 39 38 38 38 39 38 40 40 39 40 40 40 41 41 40 40 38 38 39 42 44
50 50 50 49 49 49 50 50 49 49 49 47 46 46 45 45 45 43 43 42 42 41 41 41 41 41 42 42 43 43 43 45 45 45 44 44 43 43 42 41 41 40 39 38 38 38 38 38 39 39 38 39 39 40 39 40 40 40 39 39 39 39 42
50 50 50 49 49 50 50 49 49 48 48 47 45 44 44 43 44 43 42 42 41 41 41 40 40 40 40 41 41 42 43 43 44 44 44 44 43 42 42 41 40 40 39 39 39 38 38 38 40 38 40 39 40 39 39 39 40 39 39 38 39 40 40
50 50 49 49 50 50 49 49 48 48 48 46 45 44 43 43 43 42 42 41 41 41 40 40 39 38 39 39 40 41 41 44 43 43 43 43 44 43 42 42 41 40 40 41 40 39 38 39 39 39 39 39 39 39 38 39 39 39 38 38 38 39 40
49 50 50 49 49 49 49 48 48 48 47 46 46 44 43 43 42 41 40 40 40 40 40 40 40 39 38 39 39 40 41 42 43 42 42 43 43 44 43 43 41 42 46 50 48 46 45 45 40 38 39 38 39 38 38 38 39 39 39 38 39 40 40
49 49 49 49 48 48 48 48 48 47 46 45 45 44 43 43 41 41 40 39 39 40 40 40 43 43 43 41 39 40 42 42 43 42 43 42 43 43 42 42 46 52 50 49 48 45 44 44 45 43 40 39 38 38 38 38 38 39 38 38 38 38 38
49 49 48 48 48 48 48 48 47 46 45 45 44 44 43 41 40 40 40 39 38 39 39 41 42 40 40 43 42 40 41 40 42 42 42 41 42 43 41 41 42 48 47 47 43 45 43 43 43 43 43 44 44 41 39 38 38 39 38 38 39 38 38
49 48 48 48 48 48 48 47 46 45 44 43 43 42 41 40 40 39 39 38 38 39 39 43 40 41 41 41 44 41 41 41 42 42 43 41 42 41 40 41 42 43 43 43 43 40 43 44 43 43 43 43 43 43 43 40 39 38 39 38 38 39 39
48 47 47 47 48 48 47 46 45 45 44 44 42 41 40 40 39 38 39 38 38 38 38 42 40 41 41 42 43 44 42 42 43 40 42 42 40 40 41 42 43 41 41 49 46 39 39 41 43 43 44 44 43 44 41 41 42 42 41 38 38 39 40
47 47 47 47 47 47 46 45 45 45 45 43 41 40 39 39 38 38 38 38 37 37 38 42 40 41 42 41 42 43 42 41 41 41 40 40 41 40 39 41 41 42 40 40 39 40 40 40 40 40 40 40 40 43 43 43 43 43 44 42 39 39 41
47 47 47 47 46 46 45 44 45 44 44 43 41 40 39 38 38 39 37 36 38 38 39 41 40 41 41 41 41 42 40 41 41 40 40 41 40 40 39 40 42 40 40 40 43 42 40 39 39 39 39 39 40 40 41 41 42 43 43 42 41 41 42
47 46 46 46 46 45 44 44 44 44 43 42 41 40 39 39 38 37 37 36 37 37 38 40 40 41 41 41 42 42 39 40 39 39 40 40 40 39 39 39 41 40 40 40 44 42 41 40 38 38 39 38 39 40 41 45 44 44 44 43 42 42 43
47 46 46 46 45 44 44 43 43 44 43 41 40 40 40 39 39 38 37 37 37 35 37 40 40 41 41 40 41 39 38 39 39 38 38 39 40 39 39 40 41 39 40 41 43 40 40 41 38 38 37 37 38 39 41 44 45 44 43 43 43 43 43
47 47 46 46 45 44 43 43 43 45 43 41 41 40 40 39 38 38 38 36 37 37 37 41 41 40 40 40 41 37 38 38 37 37 37 38 39 38 40 50 48 40 40 41 41 40 39 40 38 37 36 36 37 39 41 43 42 43 44 44 44 43 43
48 47 46 45 45 44 43 44 43 43 42 42 42 41 42 40 38 37 37 37 47 39 36 41 41 40 40 41 39 36 37 37 38 35 37 38 38 39 39 42 46 44 42 41 39 39 39 40 37 36 36 35 37 38 41 40 40 41 41 42 42 43 43
48 47 46 45 44 44 44 43 42 42 42 42 42 41 42 41 39 38 39 40 42 37 37 38 40 41 40 40 41 37 36 37 37 35 35 38 39 37 37 39 42 41 40 39 39 39 39 40 37 37 36 37 37 39 40 39 42 42 40 40 40 41 41
48 47 46 46 46 45 44 44 43 43 42 42 41 41 42 41 40 40 40 40 39 37 38 37 40 40 41 40 40 39 34 35 33 34 33 35 33 35 37 37 38 42 40 39 39 39 39 40 40 39 38 38 38 40 40 39 41 43 40 40 40 41 41
48 47 47 47 45 44 44 45 44 43 42 42 42 41 41 41 41 41 40 40 40 39 43 45 37 41 40 40 41 41 38 37 35 35 34 34 33 35 35 36 37 40 39 39 39 39 39 39 40 42 40 39 40 40 41 41 39 39 39 39 39 39 39
48 48 47 47 46 45 44 44 44 43 43 42 42 42 41 41 40 39 39 40 40 40 40 42 42 40 40 40 39 40 41 38 39 38 35 35 35 35 35 36 38 41 39 39 39 39 39 39 41 40 39 40 40 40 41 39 39 38 38 38 38 37 38
48 48 47 47 47 45 44 44 44 44 44 43 42 42 40 40 40 40 41 40 42 40 40 39 41 42 39 39 39 39 39 39 39 38 37 37 35 34 36 36 38 38 38 39 39 39 39 40 39 39 39 40 40 40 39 38 37 37 37 37 36 36 36

ECMWFFLT1_sfc_temp_105.txt.gz
Temp
58 56 57 56 56 57 55 55 55 55 55 56 56 56 57 57 57 56 56 56 55 55 56 53 52 52 53 53 53 52 53 52 50 48 47 48 46 46 50 48 49 49 48 46 45 43 41 39 39 45 47 48 47 49 50 50 51 51 51 52 53 53 52
58 57 57 59 57 56 54 54 54 54 54 55 55 55 55 56 57 55 55 55 55 55 55 53 53 53 52 51 51 51 50 51 51 50 48 46 46 45 45 45 46 45 45 45 45 44 41 38 37 39 40 45 45 46 48 49 51 51 52 52 53 52 52
57 56 56 55 55 54 53 52 52 52 52 53 54 54 54 55 54 55 54 54 54 55 55 52 53 52 52 51 51 51 50 49 50 50 48 47 47 47 46 45 43 43 43 43 42 42 40 41 36 38 39 39 38 43 46 47 49 49 51 51 51 51 51
56 55 54 53 53 52 52 51 51 51 51 51 52 53 53 54 54 55 54 53 54 55 54 52 51 51 51 51 51 51 50 49 48 48 48 48 47 46 46 45 43 43 40 39 39 40 39 37 37 38 39 41 40 39 43 48 48 49 51 51 50 50 51
56 55 53 52 52 52 51 50 50 50 50 51 51 51 52 52 53 52 53 53 53 52 52 52 52 51 51 51 50 50 49 49 49 48 47 46 46 46 45 45 44 44 43 42 42 41 39 39 38 37 37 39 38 40 46 45 46 48 48 49 50 50 51
56 55 54 53 52 52 51 50 50 49 50 50 50 50 50 51 52 52 52 52 51 52 52 52 51 51 51 50 50 49 48 47 47 47 46 45 45 45 44 45 45 44 43 43 43 42 41 41 39 37 38 39 36 37 40 42 43 45 48 48 50 50 50
55 55 54 53 53 52 52 51 50 49 49 49 49 49 50 51 51 51 51 51 51 52 52 52 51 51 51 50 49 48 47 47 47 46 46 46 45 44 45 44 44 44 43 43 42 42 40 40 38 37 36 38 37 37 39 39 43 41 43 48 49 49 50
55 55 54 54 53 52 52 51 50 49 50 49 49 50 51 51 51 51 51 51 51 51 51 51 51 51 50 50 49 48 48 47 47 47 46 45 45 44 44 44 45 43 42 43 42 42 42 41 40 39 37 36 36 35 37 38 39 40 42 46 48 48 49
57 55 54 54 53 53 53 52 50 49 50 49 50 50 50 51 51 50 51 50 50 50 50 50 50 50 49 49 48 48 47 49 46 45 45 44 44 43 43 43 44 42 43 43 43 42 41 41 41 39 39 37 34 33 36 34 37 37 43 43 45 47 49
55 54 54 53 54 54 54 52 50 49 49 50 50 50 50 50 50 50 50 50 50 50 50 50 50 49 49 49 48 47 46 46 46 44 44 44 43 43 43 43 42 43 42 43 42 42 42 41 41 40 39 38 37 33 33 32 35 35 40 44 41 45 49
55 55 55 55 56 55 53 51 50 50 49 50 50 51 50 49 50 51 49 49 49 49 49 49 49 49 48 48 47 46 46 46 45 45 45 44 43 44 44 43 42 42 43 41 41 42 42 41 40 40 39 39 39 36 34 32 33 36 40 43 44 43 47
55 55 56 56 56 55 53 51 49 48 48 49 50 49 48 48 48 48 49 48 49 48 48 48 49 48 48 47 47 46 45 45 44 43 44 45 44 44 42 42 42 41 42 41 41 41 41 41 40 39 39 40 40 38 36 35 33 36 41 39 43 46 46
54 54 54 55 55 53 52 50 48 48 47 49 47 48 48 48 48 47 47 48 47 47 47 47 48 47 46 46 45 45 45 44 44 43 43 44 44 43 42 41 41 40 40 40 40 40 39 41 41 39 40 39 38 38 38 36 34 35 41 41 42 44 46
52 53 54 55 53 51 50 49 48 48 48 47 47 47 47 47 47 47 47 47 46 46 47 47 47 47 46 45 45 44 44 44 43 43 44 42 43 42 42 41 40 39 39 39 39 39 39 39 40 39 40 39 38 38 37 36 34 35 39 42 42 42 45
52 53 53 52 51 50 48 48 48 48 47 46 47 47 46 46 46 46 46 45 45 46 46 46 46 46 46 45 45 46 44 44 42 42 42 41 41 43 40 39 39 39 38 38 37 38 38 38 39 38 38 39 37 38 38 37 35 35 35 40 41 44 44
52 52 51 50 49 48 48 47 48 47 46 45 46 46 45 45 45 45 45 45 45 45 45 45 45 46 45 45 44 44 44 43 43 42 42 40 40 39 39 39 38 38 40 38 37 37 38 38 38 38 38 38 38 38 39 38 35 34 35 37 41 41 42
51 51 49 48 48 47 47 47 47 46 45 45 45 45 45 45 45 44 44 44 44 43 44 43 43 43 44 45 45 44 43 43 42 42 41 41 40 39 38 38 37 37 38 37 37 37 37 37 37 38 37 38 38 38 39 39 38 35 36 35 39 40 42
50 49 48 48 47 47 47 46 47 46 45 44 44 44 44 44 44 44 43 43 42 42 42 42 42 42 42 42 43 44 43 42 42 41 41 41 45 39 40 38 38 38 37 37 36 37 37 36 37 37 37 38 38 38 39 38 38 37 36 35 37 40 41
49 48 48 47 47 47 47 46 45 45 45 43 43 43 43 43 44 42 41 41 41 40 40 40 40 40 41 41 42 43 43 43 42 41 41 41 40 39 39 38 38 38 37 37 36 36 36 36 37 37 37 38 38 38 37 38 38 38 37 36 37 37 40
49 48 47 47 47 46 46 45 45 44 44 43 42 42 41 41 42 41 40 40 40 40 39 39 39 39 40 40 42 42 42 41 41 41 40 41 40 39 38 38 38 38 39 38 37 37 37 37 39 37 38 37 38 37 37 37 37 37 36 36 37 38 38
48 47 47 47 47 46 45 45 44 44 44 42 41 41 41 41 41 41 40 40 40 40 39 39 37 38 39 40 42 41 41 41 41 40 40 40 40 39 38 39 38 38 37 38 39 38 37 38 38 38 38 38 37 37 36 36 36 36 36 36 36 37 38
48 48 48 47 46 45 45 44 44 44 43 42 42 40 40 40 40 39 38 39 39 39 40 39 39 38 39 38 38 41 41 42 41 40 40 39 39 39 40 39 38 37 42 50 49 47 45 45 40 38 38 37 38 37 36 36 36 35 36 35 36 38 37
47 47 47 46 45 45 44 44 43 42 42 41 40 40 39 40 39 39 39 38 38 39 39 40 43 44 45 39 38 39 41 40 40 40 41 40 39 40 41 39 42 52 51 49 48 45 44 44 45 42 39 38 37 36 35 35 35 36 35 35 36 36 35
47 47 46 46 45 45 44 43 42 42 41 41 40 41 39 38 38 38 38 38 38 39 38 40 42 40 40 43 39 39 40 39 40 40 40 39 39 41 41 38 35 43 47 45 43 44 43 43 42 42 43 44 44 39 36 35 36 36 36 36 36 36 36
47 46 46 45 45 44 44 43 42 41 40 40 40 39 38 37 37 36 37 37 37 38 38 43 40 41 41 42 45 41 39 40 41 39 39 38 39 40 38 36 38 39 40 41 42 40 41 42 42 42 42 42 42 42 42 38 37 37 36 35 36 36 36
46 45 45 45 45 44 43 42 41 41 39 40 39 38 36 37 36 36 37 37 37 37 37 42 41 41 41 41 42 42 39 38 41 39 37 38 38 38 39 39 39 41 39 47 44 38 37 38 41 42 42 43 42 43 40 40 41 41 39 36 36 36 37
46 45 45 45 44 43 43 42 41 41 40 39 37 37 35 36 35 36 36 37 36 36 37 42 41 41 41 41 41 42 39 39 39 38 38 37 38 37 37 36 37 40 40 38 38 38 38 36 36 37 37 38 38 40 41 42 41 42 42 40 37 36 39
45 45 45 45 44 43 42 41 41 41 39 38 37 37 36 35 36 37 36 35 37 36 38 41 40 41 41 41 41 41 39 40 39 37 37 37 37 37 36 36 36 37 38 38 40 40 38 36 35 36 37 37 37 37 38 38 40 40 41 40 38 38 39
46 45 45 44 43 42 41 41 40 40 39 37 36 36 35 36 36 35 35 35 37 34 36 40 39 40 40 40 41 41 38 39 38 37 37 37 37 36 36 36 35 37 38 37 42 41 39 38 34 35 36 37 37 38 38 43 43 43 42 41 40 40 41
47 46 45 44 43 42 41 40 40 40 38 36 36 36 35 35 35 35 35 36 36 34 35 39 39 40 39 39 40 39 38 38 37 36 36 37 36 36 37 40 39 37 37 37 41 39 38 40 35 35 35 35 36 37 38 41 43 42 42 42 41 41 41
47 46 45 44 43 42 42 41 40 41 39 37 36 36 35 35 34 35 35 34 37 37 36 39 40 40 39 39 40 37 37 37 34 35 35 36 35 34 36 48 46 38 36 38 40 38 38 39 35 34 34 34 35 36 38 39 39 41 42 42 42 41 41
48 47 46 44 43 42 41 42 41 41 39 38 38 36 38 36 34 34 34 35 45 39 36 40 40 39 40 40 39 35 37 36 36 33 33 34 34 35 35 40 44 42 39 40 38 38 38 38 34 34 33 32 35 35 37 36 36 37 38 38 39 40 40
48 48 46 43 43 42 42 41 40 40 39 38 38 37 38 37 36 35 36 39 40 38 38 38 39 39 40 40 40 36 35 36 36 35 33 37 36 35 34 36 39 40 39 38 38 38 38 38 35 34 33 33 34 36 38 36 39 39 37 37 37 38 38
48 48 46 44 43 43 42 41 40 40 39 38 37 37 37 37 37 35 35 37 38 37 39 38 40 39 39 39 40 38 32 33 31 32 31 34 32 33 35 35 35 40 39 38 38 38 38 39 39 37 34 34 34 38 38 36 38 40 36 37 37 38 38
49 47 46 44 42 41 41 42 41 40 39 39 39 38 37 38 37 36 35 37 38 37 41 44 36 40 39 39 39 40 36 35 33 32 32 33 31 32 33 33 36 39 39 38 38 38 38 38 39 38 37 38 38 38 38 38 36 36 35 36 35 36 36
48 47 46 45 43 41 41 41 42 42 41 40 40 40 38 37 36 36 36 37 38 38 36 40 42 39 40 39 39 39 39 36 37 36 32 37 35 34 33 34 35 40 38 37 37 38 38 38 40 36 38 38 38 38 39 36 36 35 34 34 35 34 35
48 47 47 46 45 43 42 43 43 43 43 42 42 41 39 38 36 36 38 37 40 38 38 37 41 41 39 39 39 39 38 38 38 35 34 35 33 32 34 33 37 38 37 37 37 37 38 39 37 37 38 38 39 38 36 35 34 34 33 33 33 33 33

ECMWFFLT1_sfc_temp_108.txt.gz
Temp
57 56 56 56 57 57 56 55 55 55 55 55 55 56 56 57 57 55 56 55 55 55 55 52 52 52 52 53 53 52 51 50 49 48 46 47 46 46 49 47 48 48 47 46 45 45 44 42 45 47 49 48 49 49 50 51 52 51 51 52 54 53 52
57 57 58 58 56 56 54 54 54 53 54 54 55 55 55 56 57 55 55 54 54 54 54 52 52 52 51 50 50 50 49 49 50 49 47 45 45 44 45 45 46 45 45 45 45 45 43 42 41 41 42 46 47 49 49 50 51 52 52 52 53 53 52
56 55 55 54 54 54 53 52 52 52 52 53 53 54 54 55 54 55 54 54 53 54 54 52 51 51 50 50 50 49 49 48 48 48 46 46 46 46 45 45 44 44 44 44 43 42 41 43 42 42 41 41 41 45 48 48 50 51 52 52 52 53 52
55 54 53 52 52 52 52 51 51 51 52 52 53 53 53 54 54 55 53 53 54 54 52 51 50 50 50 49 49 49 48 47 47 47 47 47 46 46 45 45 43 43 41 41 40 41 41 39 41 41 41 43 42 43 47 49 50 50 52 51 51 52 52
55 54 53 52 52 52 51 51 51 51 51 51 51 52 52 53 53 52 53 52 52 51 51 51 50 50 50 50 49 48 48 48 48 47 46 45 45 45 44 45 44 44 43 42 43 42 42 41 40 40 41 42 42 44 48 48 50 50 50 51 52 52 52
55 55 54 54 54 53 51 50 51 50 50 51 50 51 51 52 52 52 51 51 51 51 51 51 50 50 49 49 48 47 47 47 47 46 45 45 45 44 44 45 44 44 43 44 43 43 42 42 41 40 42 43 41 42 45 46 46 49 50 51 52 52 52
56 56 55 54 53 52 51 51 50 50 50 50 50 50 51 52 52 52 52 51 51 51 51 50 50 50 49 48 48 47 47 47 47 46 46 45 45 45 45 44 44 44 43 44 43 43 42 42 41 39 39 42 41 42 44 44 46 45 47 51 52 52 52
57 56 55 54 53 51 51 50 50 50 50 50 50 51 52 51 51 51 51 50 51 50 51 50 50 49 49 49 48 47 47 47 47 46 46 45 44 44 44 44 44 43 43 44 44 43 43 42 41 41 40 39 40 39 41 43 44 44 45 49 51 51 52
57 55 54 53 53 53 52 52 51 51 50 50 50 50 51 51 50 50 51 50 50 50 50 49 49 49 48 48 48 47 47 48 46 45 45 45 44 44 44 44 43 43 43 44 44 43 43 43 42 42 42 40 38 37 39 39 41 42 45 46 49 51 52
55 55 54 53 54 54 54 53 52 50 50 50 50 50 49 50 50 50 49 49 49 49 49 49 49 49 48 48 47 46 46 46 46 45 45 44 44 44 44 43 43 43 43 43 44 44 43 43 43 43 43 41 41 38 36 36 39 39 45 47 44 49 51
56 56 55 55 55 54 53 52 52 50 50 50 50 51 50 50 50 51 49 49 49 49 49 49 49 48 48 47 47 46 46 46 46 46 45 45 44 45 44 43 43 43 43 43 42 43 43 43 43 42 42 43 43 40 38 36 37 41 42 46 47 46 49
56 56 56 56 55 54 53 52 51 49 49 50 50 49 49 49 49 49 49 48 49 48 48 48 48 48 48 47 47 46 46 46 45 45 45 45 45 44 43 42 43 42 43 42 42 43 43 43 42 43 42 43 42 41 40 38 36 41 44 42 45 48 48
57 56 56 55 55 54 53 52 50 49 48 49 48 48 48 48 48 48 48 48 48 48 48 48 48 47 47 46 46 46 45 46 45 44 44 44 44 43 43 42 42 42 42 42 42 42 42 43 43 43 43 42 42 42 41 40 37 38 44 43 44 46 48
55 56 55 55 54 53 52 50 48 48 48 47 48 48 48 48 48 48 48 49 48 47 47 47 47 47 46 45 45 45 45 45 45 44 45 43 44 43 43 42 42 42 42 42 41 42 42 42 42 42 43 42 42 41 41 40 38 39 42 46 45 45 47
54 54 54 53 52 52 50 49 48 48 47 47 48 47 47 47 47 47 48 47 47 47 47 47 47 47 46 45 45 46 45 44 44 43 43 43 43 43 42 42 42 42 42 41 41 41 41 42 42 42 42 42 41 41 42 40 39 38 38 43 44 46 46
53 53 52 52 51 50 49 48 48 47 46 46 47 47 46 46 47 47 47 46 47 47 47 47 46 46 46 46 45 45 45 44 44 43 43 42 42 42 42 42 41 42 42 42 41 41 41 41 42 42 41 42 41 41 42 41 39 38 38 40 43 43 44
52 52 51 51 50 49 48 47 48 46 46 46 46 46 46 46 46 46 46 46 46 46 46 46 46 46 46 46 45 45 44 44 44 44 43 43 43 43 42 42 41 41 41 42 41 41 41 41 41 41 41 42 41 41 42 42 41 39 39 38 41 43 44
50 50 50 49 48 48 47 46 47 46 45 45 45 45 46 46 46 46 45 45 45 45 45 45 45 45 45 45 45 45 44 44 44 43 43 44 45 43 43 43 42 42 41 42 42 41 41 41 41 42 41 42 42 42 42 41 41 41 39 38 40 43 44
48 48 49 48 47 47 46 46 46 46 46 44 44 44 44 45 46 44 44 44 44 44 44 44 45 45 45 45 44 44 44 44 44 44 44 43 42 43 43 43 43 42 42 42 42 42 42 41 42 41 41 42 42 41 41 41 41 41 40 40 40 40 43
48 48 47 46 46 46 46 45 46 45 45 44 44 43 43 43 44 43 43 43 43 43 42 43 43 43 44 44 44 44 44 43 43 43 43 43 42 42 42 42 43 42 44 43 43 42 42 42 42 41 42 41 42 40 40 41 41 40 40 39 40 41 41
48 47 47 47 46 45 45 45 44 45 45 43 43 43 43 43 43 43 42 42 42 42 42 42 41 42 44 44 44 44 44 44 44 43 42 43 43 43 42 42 42 43 42 44 45 44 43 42 42 42 42 42 41 41 40 40 40 40 39 39 39 39 41
48 48 47 46 45 44 44 44 44 44 44 43 43 42 42 42 42 41 41 41 42 42 42 42 42 43 43 43 44 44 44 44 44 43 43 43 42 43 43 42 41 40 48 51 49 47 46 45 43 42 42 41 42 41 40 40 40 40 40 39 39 41 40
47 47 46 45 44 44 43 43 43 42 42 42 41 41 41 42 42 42 41 41 41 42 42 43 46 45 45 44 43 44 44 43 44 44 44 43 43 43 43 40 43 49 49 48 47 45 43 43 44 43 43 42 41 40 40 40 40 40 39 39 39 39 38
47 46 45 44 44 44 43 43 42 41 41 41 41 42 41 41 41 41 42 41 41 41 41 43 43 41 42 43 44 44 44 43 43 43 43 43 44 45 44 42 41 46 46 45 46 44 42 42 41 41 42 42 43 43 41 40 40 40 39 39 39 39 38
46 45 45 44 44 43 43 42 41 41 40 40 41 41 40 40 40 40 40 40 40 41 42 44 40 41 41 42 45 44 44 44 43 42 42 43 44 44 43 42 42 43 44 46 46 42 42 42 41 41 40 41 41 41 41 41 40 40 40 39 38 39 39
46 45 45 44 44 43 42 42 41 41 40 40 40 40 39 39 39 39 40 40 41 42 42 42 40 41 41 41 42 43 44 44 44 42 42 42 42 43 42 43 44 43 42 45 44 41 41 41 41 40 41 41 41 42 40 39 40 42 42 40 39 39 40
46 45 45 44 43 42 42 41 41 41 41 40 39 38 38 38 38 39 40 40 39 39 41 42 40 41 41 40 40 42 42 43 43 43 42 42 43 42 41 42 42 43 43 42 41 42 41 40 39 40 40 41 41 42 41 41 40 40 42 42 40 38 41
46 45 45 44 43 42 41 40 40 41 40 39 39 38 38 38 39 39 39 38 40 40 41 41 40 40 40 40 40 41 42 42 42 41 41 41 42 41 40 39 40 41 41 41 42 42 41 40 39 39 39 41 41 41 41 42 43 43 43 42 41 41 41
46 45 44 44 43 42 41 41 40 40 39 38 37 38 37 38 39 38 38 39 40 38 39 39 39 40 40 40 41 42 41 42 42 41 41 41 41 40 40 40 41 41 41 40 42 39 40 41 39 39 39 40 41 41 42 43 42 42 43 43 43 42 43
46 45 45 44 43 42 41 40 40 41 38 37 37 37 38 38 38 37 38 39 39 38 39 40 39 40 40 40 41 41 41 41 41 41 41 41 40 40 40 43 43 41 41 41 41 38 38 40 39 39 39 39 39 40 42 43 42 41 41 40 40 40 40
47 46 45 44 43 43 42 42 41 42 39 38 37 37 38 37 36 37 38 38 40 39 39 40 39 39 40 40 42 41 41 41 40 41 41 40 39 39 41 48 47 43 41 41 39 38 37 40 40 39 39 38 39 40 41 42 41 42 42 41 40 40 40
48 46 46 45 44 43 42 42 42 41 39 39 38 37 39 37 36 36 37 38 44 41 38 41 39 39 39 40 40 40 40 41 40 39 39 42 39 38 39 41 44 44 43 41 38 38 37 40 40 40 39 38 39 39 41 40 39 40 41 40 41 42 42
48 47 46 45 45 44 43 42 41 40 39 39 38 37 38 37 37 37 38 41 42 40 40 40 41 39 39 39 39 39 39 41 41 38 37 42 43 38 38 39 41 39 38 38 37 37 37 37 40 40 39 39 39 39 42 40 41 41 40 39 39 41 40
48 47 47 45 45 44 44 42 41 40 39 38 37 37 37 37 37 37 38 38 39 38 40 40 41 38 39 39 39 39 38 40 38 38 37 39 36 37 39 40 40 40 38 38 38 37 37 37 39 42 40 40 40 41 40 40 40 40 39 39 40 40 41
48 47 47 46 45 43 44 44 42 41 41 39 38 37 37 38 37 38 37 38 39 38 42 43 39 40 39 39 39 39 39 39 38 38 38 38 36 36 37 39 40 40 38 37 37 37 37 37 38 42 41 38 37 37 40 41 40 40 39 40 40 40 40
47 47 46 46 45 43 43 43 42 41 40 40 40 39 38 38 38 38 38 38 38 39 38 42 41 41 39 38 38 39 38 38 37 40 38 41 38 39 38 38 38 39 38 37 37 37 37 37 39 41 37 37 37 37 39 40 40 39 39 39 39 39 39
48 47 47 46 45 44 43 43 42 42 42 42 41 40 40 39 39 39 39 39 39 39 40 39 41 41 41 38 38 38 38 37 38 38 38 38 37 37 38 38 39 37 37 37 37 37 37 38 40 37 37 37 37 38 40 39 39 38 38 39 38 38 38

ECMWFFLT1_sfc_temp_111.txt.gz
Temp
63 61 61 61 62 63 63 62 63 63 64 65 64 65 65 65 64 64 64 63 63 63 63 61 60 60 61 60 59 59 60 59 59 59 58 59 58 55 58 57 57 57 58 57 58 59 60 57 56 60 60 58 59 58 59 60 60 59 58 59 62 62 61
63 63 63 63 62 62 61 61 61 62 63 63 64 64 64 65 64 63 63 63 62 62 63 61 60 60 59 58 58 58 57 57 58 57 58 57 58 57 57 56 57 57 56 56 56 58 58 57 55 55 55 57 57 57 58 59 60 60 60 60 61 62 61
63 63 64 62 62 61 60 60 62 62 63 62 63 64 64 64 64 64 63 62 61 61 61 60 59 58 58 58 57 57 57 56 57 56 56 56 57 56 57 57 57 57 57 56 56 56 56 57 55 55 54 54 53 54 57 57 59 60 62 61 61 62 61
60 61 61 61 61 61 61 61 62 62 63 62 62 62 63 63 62 63 62 61 61 60 60 60 59 59 58 57 57 56 56 55 55 55 55 55 56 55 55 56 55 55 54 53 53 55 55 54 56 55 56 58 57 55 56 58 59 61 62 61 61 61 61
61 62 62 62 62 61 60 60 62 62 61 62 62 62 61 62 61 61 61 60 60 59 59 59 59 59 58 58 57 57 56 55 56 56 55 54 54 55 54 55 54 55 55 54 55 55 55 54 55 55 56 57 58 59 59 57 60 60 61 61 62 62 62
63 64 63 61 61 61 61 61 62 61 61 61 61 60 60 60 61 60 60 59 59 59 59 59 58 58 58 57 56 56 56 55 55 55 54 53 54 54 54 55 55 55 54 55 55 55 54 55 55 54 57 58 55 57 59 59 58 61 61 62 62 62 63
63 63 62 62 61 61 62 62 62 62 61 60 60 60 60 61 61 60 59 59 59 59 58 58 58 58 58 58 56 56 55 55 55 54 54 54 54 54 55 55 54 54 54 55 55 55 54 54 53 52 53 55 55 56 57 58 59 58 60 62 63 63 62
63 63 62 61 60 60 61 61 61 62 61 61 60 60 61 60 59 60 59 59 58 58 58 57 57 57 57 57 57 55 55 55 55 55 54 54 53 53 53 54 54 54 54 55 55 54 55 53 53 52 53 53 54 55 55 58 59 56 55 61 63 62 62
63 62 60 59 59 60 60 60 60 60 61 60 60 60 60 60 59 59 59 58 58 58 58 58 57 57 56 56 56 55 54 56 54 54 54 54 53 53 53 54 54 53 54 54 55 54 54 54 54 54 54 53 51 51 54 54 55 56 60 57 61 63 62
60 58 57 58 58 59 59 59 59 59 60 60 59 60 59 60 59 59 58 58 57 57 57 57 57 57 57 56 55 55 54 55 55 54 54 54 53 54 53 53 53 53 54 54 54 54 54 55 55 54 54 52 52 50 48 50 51 51 57 59 55 59 61
58 58 58 58 59 59 59 58 58 59 59 60 60 59 59 59 59 59 58 57 57 57 57 58 58 57 56 56 56 56 56 56 55 55 54 54 54 54 53 53 54 53 54 54 53 54 54 54 54 54 54 54 53 50 49 47 49 54 53 57 58 56 60
58 58 59 59 59 59 59 59 59 59 59 60 60 59 59 59 59 58 58 58 57 57 57 57 57 57 57 55 55 55 56 56 55 54 54 54 54 54 53 52 53 53 54 53 54 54 54 55 55 55 54 54 53 51 50 50 48 54 55 52 56 59 58
59 58 58 59 59 59 60 59 59 59 59 60 60 60 60 59 59 58 58 58 57 57 57 57 57 57 56 56 56 55 55 56 55 54 54 54 54 54 53 53 53 53 54 55 54 54 54 55 55 55 55 54 53 52 51 50 48 49 55 54 55 57 59
58 59 59 59 60 59 59 59 60 60 60 59 60 59 59 60 60 59 59 58 58 57 57 56 57 57 56 55 56 55 56 56 55 54 54 53 54 54 54 54 54 53 55 54 54 55 55 55 55 55 55 55 53 53 51 50 48 49 54 57 56 56 57
60 60 59 59 59 59 58 58 59 59 59 59 60 60 60 59 59 59 59 59 58 58 58 57 57 57 56 55 55 55 55 56 55 54 54 54 54 54 54 54 54 54 55 54 54 54 55 55 55 55 55 54 54 53 52 50 50 49 48 54 54 57 56
61 60 60 59 58 58 58 58 60 59 58 58 60 60 59 59 59 60 59 58 59 58 58 58 57 57 56 56 56 55 55 56 55 54 53 54 54 54 54 53 54 54 54 54 54 54 54 54 55 54 53 54 53 53 53 52 50 49 49 50 54 54 55
61 60 59 59 57 57 57 58 59 59 59 58 58 59 59 60 59 59 58 58 58 58 58 57 57 58 57 57 56 56 56 56 55 55 54 55 55 55 54 53 53 54 54 53 54 54 54 54 54 54 54 54 54 53 53 53 53 50 50 49 52 54 54
60 59 58 58 56 56 57 58 59 59 58 58 58 58 59 60 59 59 57 58 58 58 58 58 58 57 57 57 57 56 56 56 55 55 55 54 54 55 54 54 54 55 54 53 53 53 54 53 54 54 53 55 54 54 54 54 53 53 51 50 51 54 55
59 58 57 56 56 56 57 58 58 58 59 58 58 58 58 59 60 60 60 59 59 59 59 59 59 58 58 57 57 57 56 56 56 56 55 55 55 55 54 55 54 55 54 53 52 53 53 53 53 53 53 53 54 54 53 53 53 52 52 51 51 51 54
58 58 57 56 56 57 57 57 58 58 58 58 57 57 58 58 59 60 59 59 58 58 58 59 58 58 58 58 57 57 56 55 55 55 56 56 56 55 55 55 55 55 54 54 53 52 53 53 53 53 53 52 54 52 52 53 53 52 51 51 52 53 52
58 58 57 57 56 57 57 57 58 58 58 57 57 58 57 57 57 59 58 59 59 58 58 58 58 58 58 58 57 57 56 55 55 55 55 55 55 55 55 55 55 55 55 55 54 53 52 52 53 53 54 53 53 52 52 52 52 52 51 51 51 51 52
57 57 57 56 56 56 57 57 56 57 57 57 57 58 58 57 57 57 57 57 57 58 58 57 58 57 57 57 58 57 56 56 55 55 55 55 55 55 56 55 55 56 53 50 46 46 46 47 51 52 53 53 52 51 51 52 51 51 51 51 51 52 51
56 56 56 56 56 56 56 55 55 56 56 56 56 56 57 57 57 56 56 57 57 56 57 57 53 49 51 57 57 57 56 56 56 56 55 54 54 55 55 55 54 50 49 48 47 44 43 43 44 48 51 51 51 51 50 50 50 50 50 49 50 49 49
55 55 56 56 55 55 55 55 55 55 55 54 54 54 55 56 56 57 57 56 55 56 56 55 45 43 44 47 55 57 56 56 56 56 56 55 54 54 55 56 56 53 53 52 52 44 43 42 42 41 41 42 45 48 49 48 49 49 49 49 50 50 49
55 54 55 55 55 56 55 55 54 54 53 53 53 54 54 55 56 56 56 57 56 56 56 48 41 42 42 43 49 57 57 56 55 56 56 56 56 56 55 55 55 54 54 53 54 55 51 45 42 41 41 41 41 41 42 46 47 48 48 48 48 49 49
54 53 54 54 55 55 55 54 54 53 53 53 53 53 54 54 54 55 55 56 56 56 56 43 41 41 42 42 43 51 58 57 56 56 56 56 56 56 56 56 56 55 54 49 53 55 55 55 48 44 44 45 46 44 41 39 41 47 49 48 48 48 49
53 53 54 54 53 54 53 54 53 53 53 52 52 53 53 53 53 54 55 56 55 56 56 44 40 41 41 41 41 46 59 57 57 57 56 56 55 55 55 55 55 55 55 54 54 53 54 54 54 54 55 55 55 52 46 45 44 42 46 49 49 48 50
52 52 52 53 53 53 53 52 52 52 52 52 52 52 52 52 53 53 54 55 55 54 54 41 40 40 40 41 40 45 58 56 57 57 57 56 56 55 55 55 55 55 54 54 51 46 52 53 53 54 54 54 55 54 54 53 52 51 50 50 50 50 50
51 51 50 50 51 51 51 51 50 50 51 51 53 53 53 53 52 52 53 54 55 54 52 39 40 40 40 40 40 54 57 56 56 57 56 56 56 56 56 55 56 55 54 53 45 37 42 50 54 54 53 54 54 55 55 51 46 44 48 49 50 50 50
51 50 49 48 49 49 48 48 49 50 50 50 50 50 51 51 52 51 51 53 54 54 52 42 39 40 40 39 46 58 56 57 57 56 55 55 56 55 55 56 56 56 54 54 42 37 37 42 55 53 53 52 53 54 54 55 48 44 42 41 41 40 40
51 50 49 48 47 47 48 49 49 50 49 48 48 49 50 50 50 50 50 51 54 54 53 45 39 40 40 40 49 57 57 57 55 55 54 54 56 55 54 48 52 55 54 53 39 37 36 46 54 53 52 51 52 53 53 54 54 53 47 45 44 43 43
50 50 49 48 47 47 48 49 50 50 49 49 49 49 49 49 48 49 50 51 49 53 53 47 39 39 40 40 49 57 57 56 54 54 54 53 54 55 54 51 45 48 50 46 36 38 36 46 54 53 52 51 51 52 52 52 52 51 52 53 53 54 52
49 49 49 48 48 49 50 50 49 49 48 50 50 49 48 49 48 48 48 50 50 53 52 51 46 38 40 40 43 56 57 55 54 52 54 54 53 54 55 55 48 38 38 37 37 36 38 38 51 53 53 52 51 50 52 51 51 51 51 52 52 53 53
50 50 50 48 49 50 50 49 48 48 47 48 48 47 47 47 48 47 48 49 50 50 52 51 48 38 39 40 40 45 54 55 55 54 53 53 55 54 55 56 57 42 38 38 37 36 38 37 40 52 53 52 52 48 44 50 51 47 52 52 53 54 55
52 51 51 50 49 49 49 49 49 49 49 47 46 45 46 46 47 48 47 48 49 50 49 48 50 40 39 39 39 41 52 54 54 54 53 54 54 55 55 57 58 45 37 38 37 37 36 38 36 50 53 44 39 37 45 49 52 53 54 54 54 54 54
51 51 49 50 49 48 49 49 49 49 47 47 46 45 45 46 47 46 46 47 48 49 50 49 43 45 39 39 38 39 41 48 40 52 53 53 53 54 56 56 54 41 37 37 38 37 37 36 39 51 42 38 38 36 40 52 53 52 53 54 53 53 53
51 50 50 50 51 50 49 49 49 48 47 47 47 46 46 47 47 46 46 47 49 50 50 51 44 43 44 37 38 38 38 40 40 52 54 54 55 55 55 56 52 39 37 37 37 37 37 38 48 42 38 37 36 39 51 52 53 53 51 53 52 52 52

ECMWFFLT1_sfc_temp_114.txt.gz
Temp
67 64 64 65 66 66 67 67 68 69 72 74 73 74 74 73 72 71 71 71 71 71 71 70 69 69 70 69 68 68 68 69 69 68 67 69 67 64 67 67 68 68 68 66 68 67 67 61 61 66 67 65 66 65 67 68 68 67 65 66 70 70 69
68 65 66 68 67 67 66 66 68 70 71 72 72 72 73 72 71 71 71 70 70 70 72 69 68 68 67 66 66 66 66 66 66 67 67 67 68 66 66 65 67 67 68 67 67 68 67 64 63 63 62 63 64 64 65 66 68 68 68 67 69 70 68
68 67 68 67 66 66 65 67 70 71 70 69 70 72 71 72 71 71 70 69 69 69 69 68 67 66 66 65 65 65 65 64 65 65 65 66 66 66 67 66 66 66 66 66 66 66 66 67 64 64 64 63 61 62 64 64 67 68 70 69 69 71 69
68 68 67 65 65 65 65 67 70 70 70 69 69 70 69 70 69 70 69 69 69 68 68 68 67 67 66 65 65 65 64 64 64 63 63 64 65 64 65 66 65 65 63 62 63 65 65 64 64 64 65 68 66 62 63 65 67 69 70 70 69 69 68
67 68 67 66 67 67 68 67 69 72 70 69 70 70 68 69 68 68 68 68 68 67 67 68 67 67 67 66 66 65 64 64 64 64 63 63 63 63 63 64 64 64 64 64 65 64 64 64 65 64 66 68 68 68 68 65 68 69 70 70 71 70 70
68 70 71 70 69 68 69 69 68 69 71 70 70 67 67 67 68 67 67 67 66 66 66 66 66 66 66 65 65 64 64 63 63 63 62 61 63 63 63 64 65 65 64 65 64 64 64 65 64 64 67 68 63 65 68 69 68 71 70 71 71 71 71
70 71 71 69 69 69 69 69 70 70 70 68 67 67 67 68 68 67 66 66 66 66 66 65 66 66 66 66 64 63 63 63 63 62 62 61 62 62 64 63 63 63 63 64 64 64 63 62 61 61 62 63 63 65 67 69 69 66 68 72 72 72 71
70 71 71 71 70 70 70 69 69 70 70 69 68 67 68 67 66 66 66 65 65 65 65 65 65 65 65 65 64 63 63 63 62 62 62 61 61 61 61 63 62 62 62 63 63 63 64 62 61 61 61 61 62 64 64 68 68 66 66 69 71 71 70
71 71 71 70 68 68 69 69 68 68 69 68 68 67 67 67 66 65 66 65 65 65 65 65 65 65 64 63 63 62 61 63 62 61 62 61 60 60 61 62 62 62 62 63 63 62 63 63 63 62 62 61 60 59 62 61 63 64 68 65 70 71 70
70 70 69 67 66 66 67 67 67 68 68 67 67 67 66 67 66 66 65 64 64 65 65 65 64 64 64 64 63 62 61 63 62 61 62 61 61 61 61 61 61 61 61 62 62 62 62 63 63 63 63 60 60 59 57 58 59 59 64 67 63 67 70
70 70 68 65 65 66 66 67 67 67 68 67 67 66 66 66 65 65 65 64 64 64 64 65 65 64 64 63 63 63 63 63 62 62 62 62 61 61 61 61 61 61 61 61 61 61 62 62 62 62 62 62 60 57 57 56 58 61 61 65 66 65 68
69 69 68 66 66 66 67 67 68 67 67 67 66 66 66 66 65 65 65 64 64 64 64 64 64 64 64 62 62 62 62 63 62 61 61 61 61 61 60 60 61 60 61 60 61 61 62 62 62 63 62 62 60 58 57 57 56 61 63 59 63 67 67
70 68 67 67 67 67 68 68 68 66 66 67 67 67 67 66 65 65 65 64 64 64 64 64 64 64 63 63 63 62 62 62 62 61 61 62 61 61 61 60 60 61 61 62 61 61 62 62 62 62 62 61 61 59 59 58 56 57 62 62 63 65 67
67 66 66 68 68 68 67 68 68 67 68 66 67 67 66 67 67 66 66 65 65 64 63 63 64 63 63 62 62 62 63 63 62 61 61 60 61 61 61 61 61 60 61 61 62 62 62 62 63 62 62 62 61 61 59 57 56 57 61 64 63 63 65
66 65 65 66 66 67 68 68 67 68 66 67 68 68 68 67 67 66 66 66 65 65 64 64 64 64 63 61 61 62 62 63 62 61 61 61 60 61 60 61 60 60 61 61 61 62 63 63 63 63 62 61 61 60 60 57 57 57 56 61 62 65 64
64 65 66 66 66 67 67 67 68 67 67 67 68 68 67 67 67 67 66 65 66 65 65 64 64 63 62 62 62 62 62 62 61 60 60 60 61 61 60 60 60 60 60 60 60 60 60 61 63 61 60 61 60 59 60 59 57 56 56 58 62 62 62
64 66 66 67 66 67 67 67 68 68 68 67 67 67 68 68 67 66 65 66 66 65 64 63 63 64 64 63 63 62 63 62 62 62 61 62 61 61 60 59 59 60 60 59 60 60 61 61 61 61 60 61 61 59 60 60 60 58 58 56 60 62 62
65 66 67 67 66 67 67 68 68 68 67 67 68 67 67 68 67 66 64 65 65 65 64 64 64 64 63 63 63 62 63 63 62 62 61 61 60 61 60 60 60 61 60 59 59 60 60 58 61 60 60 61 61 61 61 61 60 60 58 57 58 62 62
65 66 66 66 66 67 67 67 67 67 68 67 67 67 67 67 68 67 67 67 66 66 65 65 65 64 64 63 63 62 62 62 62 62 62 61 61 61 60 61 60 61 60 59 58 58 59 58 59 59 59 59 61 60 59 60 60 60 59 59 59 59 61
66 65 65 65 66 67 67 67 67 68 68 67 66 66 66 67 67 67 67 66 66 65 65 65 64 64 64 64 63 62 61 61 61 61 62 62 62 61 61 61 60 60 60 60 58 58 58 58 58 59 59 58 60 59 59 60 60 59 59 59 60 60 60
66 64 65 66 67 67 67 67 67 67 67 66 66 67 66 66 66 67 66 66 66 65 65 65 65 65 64 63 63 62 62 61 61 60 60 61 61 61 61 61 61 60 60 59 58 58 57 57 59 59 59 59 58 58 58 59 59 60 59 58 59 58 59
66 65 65 66 66 66 67 67 67 67 66 66 66 67 67 67 66 66 66 65 66 65 64 63 64 64 63 63 63 62 62 62 61 60 60 60 61 61 61 61 60 59 56 51 47 50 50 50 56 57 58 58 57 57 58 58 59 59 58 58 58 59 58
66 65 65 64 66 66 67 66 66 66 66 66 66 66 67 66 66 65 65 65 65 63 63 63 59 53 56 63 63 62 61 61 61 61 60 59 60 60 60 60 58 52 50 49 47 44 43 44 45 52 56 57 56 57 56 56 57 57 57 56 56 56 55
65 64 64 64 64 65 66 65 65 65 65 65 64 65 65 65 65 65 65 64 63 62 62 62 48 47 48 52 61 62 61 61 62 61 61 60 59 59 60 61 60 55 55 52 52 43 44 42 42 42 43 45 49 54 55 55 55 56 55 55 56 56 55
64 63 63 63 63 65 64 64 64 65 64 63 63 64 63 64 64 64 64 64 62 62 63 51 45 44 45 47 52 62 62 61 61 61 61 61 61 61 60 60 60 60 59 59 60 57 50 43 43 42 40 41 41 42 43 51 53 54 54 54 54 55 55
63 63 64 64 63 63 63 63 64 63 63 63 63 62 63 63 63 64 63 63 62 62 63 46 44 43 44 44 44 52 64 62 61 61 61 61 62 61 61 60 60 60 59 53 57 61 61 59 47 43 44 42 41 41 39 38 42 52 55 54 54 54 55
62 62 63 63 62 62 62 63 63 63 63 63 62 62 62 62 63 63 63 63 62 63 62 46 43 42 43 41 43 46 65 61 62 62 61 61 61 61 60 61 60 60 60 60 60 59 60 60 61 61 60 61 59 51 42 39 38 38 46 55 55 54 55
62 63 62 62 61 62 62 62 62 63 62 61 61 61 61 61 61 62 62 63 62 61 61 43 42 41 42 41 42 44 63 61 62 62 61 61 61 60 60 60 60 60 60 59 58 53 57 59 60 60 60 60 60 61 61 60 59 59 58 57 57 56 57
62 61 60 60 60 61 61 61 60 61 61 62 62 62 61 61 60 60 61 61 61 61 57 41 42 41 41 41 40 55 61 61 61 62 61 61 61 61 61 60 61 60 59 58 48 35 44 53 60 60 59 59 61 62 61 56 51 51 55 57 57 57 57
60 59 59 58 58 59 59 59 60 61 60 61 60 60 59 59 60 60 60 61 60 61 57 44 40 40 41 40 45 59 61 62 62 61 61 61 61 61 60 61 61 60 59 58 44 37 39 39 59 59 59 59 60 61 60 60 47 42 41 41 42 43 42
60 58 58 58 58 58 58 59 59 60 60 59 58 59 60 60 61 61 60 59 60 60 59 47 39 40 40 39 48 59 60 61 61 61 61 61 62 61 59 51 54 60 58 57 38 35 38 45 59 59 59 58 59 59 59 59 60 60 50 48 45 43 43
60 59 58 59 59 58 58 58 59 58 57 57 56 58 59 59 59 60 60 60 56 58 59 49 39 40 40 40 48 59 61 61 59 59 59 59 60 60 59 55 49 49 55 47 33 38 36 44 59 59 58 59 57 57 57 58 58 58 58 59 60 61 60
56 56 57 58 59 59 59 58 57 57 56 57 57 58 58 59 58 58 59 59 58 59 59 56 48 39 40 40 42 58 61 59 58 57 57 58 58 59 59 59 51 38 38 37 38 35 38 36 53 59 59 59 57 54 57 57 57 57 57 58 59 61 61
54 56 57 57 58 57 58 58 56 56 55 56 57 57 57 57 56 56 57 58 58 59 59 58 51 39 40 40 41 43 59 59 58 58 58 58 59 58 59 60 61 44 37 39 38 36 37 37 39 55 58 58 56 51 48 57 57 51 58 59 60 61 62
53 54 55 56 55 55 57 58 56 55 56 56 55 55 56 56 56 55 56 57 58 58 57 53 55 40 40 39 41 39 54 59 59 61 59 60 59 60 61 61 62 46 36 39 37 38 36 38 36 54 56 46 39 38 51 56 58 60 60 61 61 60 61
52 54 55 56 56 56 57 57 56 56 56 55 54 54 55 55 55 55 55 56 57 58 58 55 47 48 40 39 39 39 40 48 46 57 59 59 59 60 62 62 56 39 38 38 38 38 38 36 37 54 45 40 41 37 41 58 59 59 60 60 59 59 59
54 56 56 56 57 58 57 58 56 55 56 55 55 55 56 55 55 54 54 55 55 56 57 57 47 45 46 37 39 38 39 38 40 55 58 60 61 61 61 61 54 38 38 38 36 37 38 37 50 40 38 39 37 39 54 59 60 60 58 58 58 58 59

ECMWFFLT1_sfc_temp_117.txt.gz
Temp
73 69 69 70 71 71 70 70 70 71 73 75 74 75 74 74 74 73 74 74 74 74 74 73 72 73 73 72 71 72 72 72 73 71 70 72 69 67 70 71 71 72 72 70 71 68 67 60 62 69 69 68 68 68 69 70 71 70 68 68 72 73 71
72 69 70 71 70 70 69 70 71 72 73 74 74 73 74 75 74 74 73 73 74 74 74 72 71 71 70 69 69 69 69 69 70 71 70 70 71 69 69 69 71 71 71 70 71 70 68 65 64 63 62 66 66 67 67 68 70 70 71 70 72 73 71
70 69 70 70 70 70 70 70 71 71 71 71 72 73 73 76 74 74 73 72 72 72 72 71 70 69 69 68 68 68 68 67 68 69 68 69 69 69 70 69 69 69 69 69 69 69 69 69 66 66 66 63 61 64 66 67 69 71 73 71 72 73 71
70 69 70 70 71 70 70 70 70 70 71 70 70 71 72 75 72 73 72 72 72 71 71 71 69 69 68 68 68 68 68 67 67 67 67 67 68 68 69 69 68 68 67 66 66 68 68 66 66 66 67 70 68 63 65 68 69 73 73 73 72 72 71
71 71 70 69 70 70 70 69 70 70 70 71 71 70 71 72 71 71 71 71 71 70 70 70 70 70 69 69 69 68 67 67 67 67 66 66 66 66 66 67 67 68 68 67 67 67 66 66 67 67 69 71 70 71 71 67 71 73 73 73 73 73 73
72 71 71 70 71 70 70 70 70 70 70 69 70 70 70 69 71 69 70 69 68 69 69 69 69 70 69 68 68 67 67 66 66 66 65 65 66 65 65 67 68 68 67 68 67 67 67 67 67 67 69 70 65 68 71 71 70 73 73 74 74 74 74
71 71 72 71 70 71 71 71 72 71 69 69 70 70 71 71 71 70 69 69 69 69 69 69 69 69 69 69 67 66 66 66 66 65 65 65 65 66 67 66 66 66 65 67 67 67 66 65 64 63 64 66 66 68 70 71 72 68 70 74 75 75 73
72 72 71 71 71 72 72 71 72 72 70 70 70 70 71 70 69 69 68 68 68 68 68 67 68 68 68 67 67 66 66 66 65 65 65 64 64 65 65 65 65 65 65 66 66 66 67 65 64 63 63 62 63 66 66 70 70 69 68 72 74 74 73
73 72 71 72 73 74 74 73 72 71 71 70 70 70 71 70 69 68 68 68 68 68 68 68 68 68 67 66 65 65 64 66 64 64 64 64 63 64 64 65 65 64 65 66 66 65 66 66 65 65 64 63 61 61 64 63 64 66 71 68 72 73 72
72 72 71 72 73 72 72 72 72 72 71 70 69 70 69 69 68 68 68 67 67 68 68 68 67 67 67 66 65 65 64 66 65 64 65 64 64 64 64 64 64 64 64 65 64 65 65 65 66 65 65 62 62 61 59 61 60 61 66 69 65 70 72
73 73 73 72 72 71 70 71 71 70 71 70 70 69 69 68 68 68 67 67 67 67 67 68 68 67 66 66 66 65 65 65 64 65 65 65 64 64 64 64 64 63 64 64 64 64 64 64 65 65 64 64 63 60 59 58 60 63 63 67 68 67 70
74 73 73 73 71 70 70 70 70 70 70 70 69 69 68 68 67 67 67 67 67 67 67 67 67 67 67 65 65 65 65 65 65 64 64 64 64 64 63 63 64 63 64 63 64 64 64 65 65 66 65 64 62 61 59 60 58 63 65 61 65 69 69
74 74 73 71 70 71 71 71 70 69 68 69 69 69 69 68 68 67 67 67 67 67 67 67 67 66 66 65 65 65 65 65 65 64 64 64 64 64 63 63 63 64 64 65 64 64 64 64 65 65 65 65 63 62 61 60 58 58 65 64 65 67 70
73 73 71 71 70 70 70 70 70 70 70 69 69 69 69 69 69 68 68 68 68 66 66 66 66 66 66 65 65 65 65 66 65 64 63 63 65 64 64 64 63 63 64 64 64 64 65 65 65 65 65 65 63 63 61 59 58 58 63 66 65 66 67
74 72 70 70 70 71 72 70 70 70 69 69 70 70 70 69 69 69 69 69 68 68 67 67 67 66 65 64 64 65 65 66 64 64 63 63 63 64 63 63 63 63 64 63 63 65 66 66 67 66 65 64 63 62 63 60 59 58 57 63 64 67 67
73 71 69 69 70 71 70 70 71 70 70 69 70 71 70 69 69 70 69 68 68 68 67 67 66 66 65 65 65 64 65 65 64 63 63 63 64 63 63 62 62 62 63 62 62 62 63 63 65 64 63 64 62 62 63 62 59 58 58 59 63 64 64
69 69 68 68 69 70 70 69 70 70 70 70 70 70 70 70 69 69 68 68 68 68 67 66 66 66 66 66 65 65 65 64 64 64 64 64 64 64 63 61 61 62 62 61 62 62 63 63 63 63 63 63 64 62 62 62 62 60 59 58 62 64 65
68 68 67 68 68 69 70 70 71 72 70 69 70 69 70 71 69 69 67 68 68 67 67 67 66 66 66 66 66 65 65 65 65 65 64 64 63 64 63 62 62 63 62 61 61 62 61 61 63 62 62 63 64 63 62 62 62 62 60 59 60 64 65
67 67 68 68 68 69 69 70 73 70 71 70 69 69 69 69 70 70 70 70 69 68 68 67 67 67 66 66 65 65 65 65 64 64 64 64 64 64 63 63 63 63 62 61 60 60 61 60 61 61 61 61 62 62 61 62 62 62 61 61 61 61 63
67 68 68 68 69 70 70 70 71 70 71 70 69 69 69 69 69 70 70 69 68 68 68 67 67 66 66 66 65 65 64 64 64 64 64 64 64 64 63 63 62 62 62 61 60 59 60 60 61 61 61 60 62 60 60 61 62 61 61 60 61 62 61
68 69 69 69 69 70 70 70 70 70 70 69 69 70 69 69 69 70 69 69 69 68 67 67 67 67 67 66 65 64 64 63 63 63 63 63 63 63 63 63 62 62 60 59 58 58 58 58 60 60 61 60 60 59 60 60 61 61 60 60 60 59 61
70 70 69 69 69 70 70 70 70 70 69 69 69 70 70 70 69 69 69 68 68 68 67 66 66 66 65 65 65 64 64 64 63 62 62 63 63 63 63 62 61 59 57 54 50 51 51 51 55 58 59 59 59 59 59 59 60 60 60 59 59 60 59
70 69 68 69 70 70 70 69 70 69 69 69 69 69 69 69 69 68 67 68 67 66 65 66 61 57 59 65 64 65 63 63 63 63 62 61 62 62 62 60 58 55 53 52 50 46 44 46 48 52 55 56 56 57 57 57 58 58 58 57 57 57 56
70 68 69 69 69 70 70 70 69 68 68 68 68 68 68 68 68 68 68 67 65 65 65 63 47 46 47 54 64 63 63 63 63 63 62 61 61 61 61 61 59 56 55 53 53 45 45 43 43 43 45 46 49 53 55 55 56 57 56 56 57 56 55
68 68 69 70 69 70 70 71 69 67 67 67 67 67 67 67 67 67 67 67 65 64 64 51 45 45 48 45 49 62 64 63 62 63 63 62 62 61 61 61 61 61 60 60 60 56 50 45 42 42 41 42 42 42 44 51 53 55 54 55 55 55 55
69 68 69 68 68 68 71 69 66 66 66 66 66 66 66 66 66 67 66 66 64 65 62 47 45 45 45 48 45 52 66 64 63 63 63 62 62 62 62 61 61 61 60 56 58 62 60 56 47 43 45 43 43 42 40 39 41 52 55 55 55 55 56
68 68 68 67 66 68 69 67 66 66 65 65 65 65 65 65 66 65 66 65 64 65 61 48 45 44 44 44 46 48 65 63 63 63 62 63 62 62 62 62 61 60 60 60 61 60 61 61 60 58 55 55 56 53 44 42 40 39 45 53 56 55 57
67 67 67 66 65 67 71 66 65 65 65 64 64 64 64 64 65 65 65 65 64 63 58 45 45 44 43 44 43 47 63 62 62 62 61 61 61 60 60 62 62 62 61 60 58 54 56 57 59 60 61 61 61 60 58 57 57 59 59 59 59 58 58
67 66 66 65 65 64 64 64 64 64 64 64 64 64 64 64 64 64 64 64 63 62 55 43 44 44 43 44 42 58 61 61 61 61 60 61 62 62 62 61 60 60 60 59 50 41 45 52 55 58 60 61 62 62 62 59 53 52 57 59 60 59 59
66 66 66 64 64 63 63 63 63 64 62 59 60 62 62 63 63 63 62 63 62 61 56 46 43 43 43 42 47 59 60 61 61 60 60 61 62 63 62 62 61 60 59 59 47 43 41 42 54 57 60 60 61 62 62 61 49 44 45 44 44 44 44
65 65 65 63 63 63 63 64 63 63 61 61 59 59 61 62 62 62 62 62 62 60 56 49 42 43 43 41 49 57 59 60 60 59 60 61 62 62 62 56 58 61 60 59 39 38 39 46 55 58 60 59 60 60 61 61 62 58 46 42 43 42 43
65 64 64 64 63 63 63 62 63 62 62 62 60 61 61 58 57 59 61 61 58 60 58 50 42 42 42 41 49 57 58 60 59 60 61 61 62 62 61 58 54 54 55 48 33 39 38 45 55 57 59 59 59 59 59 59 59 59 60 60 61 61 58
65 64 64 63 63 62 62 61 61 61 61 61 59 60 60 60 59 60 60 61 60 62 59 55 48 41 42 41 43 56 59 60 60 60 61 62 60 61 62 61 55 42 40 38 39 38 39 38 49 55 57 58 58 56 58 57 58 58 58 59 60 62 62
63 62 61 61 61 61 61 61 60 61 60 61 61 60 60 60 59 59 60 60 61 62 61 57 51 40 42 41 41 45 57 60 62 61 61 61 60 59 61 62 62 47 40 40 39 39 38 38 39 50 55 57 57 52 49 55 57 53 59 60 61 61 62
59 58 60 59 58 59 60 60 59 60 61 61 59 58 58 59 58 58 59 60 61 61 60 55 55 41 41 41 41 41 53 59 55 60 60 60 60 60 61 61 62 49 41 41 39 39 38 38 38 48 54 46 41 40 52 55 56 59 61 62 62 61 62
56 56 56 57 57 56 57 57 58 58 58 57 57 56 57 57 57 57 58 60 61 61 61 58 49 48 41 40 40 41 42 49 43 56 58 59 59 59 61 61 56 44 40 40 39 38 38 37 39 48 44 43 43 40 43 55 57 58 61 61 60 60 60
58 57 56 56 56 56 55 56 55 57 57 56 55 56 57 57 57 56 57 58 60 61 61 60 48 46 45 39 40 40 40 39 40 53 56 58 60 60 59 60 52 40 39 39 38 38 38 38 47 44 41 39 39 41 52 55 56 60 59 60 59 60 60

ECMWFFLT1_sfc_temp_123.txt.gz
Temp
64 64 64 64 65 66 64 63 63 64 65 66 65 66 66 65 64 64 64 63 64 64 63 61 61 61 63 62 61 60 60 59 59 57 55 55 54 56 58 59 60 58 60 54 54 52 47 48 50 56 54 54 54 56 55 56 57 58 56 53 56 59 55
65 65 65 65 66 66 64 63 63 63 64 65 66 65 64 65 65 64 63 63 62 63 64 62 61 61 60 59 59 59 58 57 58 56 55 53 54 56 55 57 55 57 56 55 56 53 49 46 49 48 52 54 52 55 56 55 55 56 56 56 56 60 58
65 64 65 65 66 66 63 62 62 62 62 63 63 63 64 65 63 63 62 61 61 61 62 60 59 59 58 58 58 57 57 57 56 57 56 54 56 54 54 54 53 52 53 53 52 51 52 49 48 51 50 51 50 50 52 54 55 55 56 56 56 58 56
65 65 64 65 65 65 63 62 61 61 62 62 62 62 63 63 63 64 61 61 62 62 61 59 58 58 57 57 58 58 57 57 56 56 56 55 55 55 54 54 52 53 53 51 50 51 51 49 48 51 51 52 51 51 53 54 55 57 58 57 56 58 56
65 65 64 64 65 65 63 62 61 61 61 62 61 60 61 62 62 61 62 60 60 59 59 59 58 58 58 58 56 57 56 56 57 56 55 54 54 53 53 52 52 53 53 52 53 52 52 50 51 49 50 52 54 52 56 53 56 56 57 58 58 57 56
66 66 65 65 66 65 64 62 61 60 60 61 60 61 60 61 61 59 59 58 58 59 58 57 56 56 56 56 56 56 56 56 54 55 54 52 53 53 51 52 53 54 53 52 53 52 51 51 50 47 50 52 47 51 54 54 55 56 57 58 57 57 58
66 66 65 65 65 65 64 62 62 61 61 60 60 59 60 62 60 60 59 58 58 58 58 57 57 57 57 57 56 56 55 55 55 54 54 54 53 53 53 53 53 53 51 53 52 52 52 51 48 47 48 46 50 51 53 54 55 52 55 57 58 58 57
66 66 65 65 65 64 64 63 62 62 61 61 60 61 61 60 59 59 59 58 57 57 57 57 57 56 56 56 56 55 55 54 54 54 53 54 54 53 53 52 53 52 51 52 51 52 53 52 51 49 47 47 45 44 50 50 52 54 55 56 57 60 57
67 66 65 65 64 65 64 64 63 62 62 61 61 61 60 60 59 59 58 57 57 57 57 56 56 56 55 55 54 55 55 57 54 54 52 53 53 53 52 52 53 52 53 53 53 51 51 52 52 50 49 47 43 45 44 46 46 50 55 55 54 58 59
67 65 65 64 65 65 64 63 63 63 62 62 61 61 60 60 59 58 58 57 57 56 56 56 56 56 55 55 54 53 53 54 54 53 52 53 52 52 51 51 51 51 51 51 53 53 52 52 52 50 50 48 48 43 43 42 46 46 52 54 52 54 58
67 66 66 65 65 64 63 63 62 62 61 62 62 61 60 59 59 60 57 57 55 56 56 56 56 55 54 53 54 54 53 53 53 53 53 53 52 53 53 52 52 50 50 52 52 52 52 50 50 51 49 49 48 46 44 42 46 48 48 50 54 54 56
68 68 67 66 65 64 62 63 62 62 62 61 61 60 59 59 58 57 57 56 56 56 55 55 55 54 54 54 54 53 53 53 53 52 53 54 53 53 52 51 51 51 52 52 52 51 51 52 50 49 49 50 50 48 46 44 41 44 49 49 51 55 55
69 68 67 66 65 63 63 63 62 61 61 61 60 60 59 58 58 56 56 56 55 55 56 55 55 54 54 54 53 53 53 53 53 52 53 54 54 52 50 49 49 51 50 50 50 51 51 52 52 50 50 50 48 48 47 45 43 44 47 50 50 54 56
67 68 67 65 64 63 63 63 62 62 61 60 60 59 59 58 58 57 57 56 56 55 55 54 55 54 54 53 53 53 53 53 53 52 52 52 53 53 51 50 50 50 49 49 48 50 49 50 50 52 51 48 49 47 49 46 44 45 45 47 50 52 54
67 67 66 64 64 63 63 62 61 61 60 60 61 60 59 58 57 57 56 55 55 55 55 55 54 54 53 53 53 54 53 53 52 51 51 51 51 52 50 51 51 50 50 50 49 50 50 50 51 50 49 50 48 50 48 49 47 47 46 47 48 52 51
67 66 65 63 63 63 62 61 62 61 60 60 60 60 59 58 57 57 56 56 55 55 55 54 53 53 53 53 53 52 53 52 51 50 51 51 52 51 51 49 49 50 53 50 48 48 48 49 51 51 50 50 50 50 51 50 48 47 46 46 47 49 48
66 66 65 63 63 62 62 61 62 61 61 59 59 59 59 59 57 56 56 56 55 55 54 54 54 54 54 53 52 53 53 52 51 51 52 52 51 51 50 49 48 49 48 48 47 49 49 49 49 49 49 49 50 51 52 50 50 49 47 46 46 49 50
65 65 64 63 62 62 62 62 61 61 60 59 59 59 59 58 57 56 56 56 55 55 54 54 54 54 53 52 53 53 53 52 51 52 52 51 54 51 51 50 50 49 48 48 46 48 48 48 49 49 48 48 48 50 51 50 49 49 46 45 45 46 49
64 64 63 62 62 62 62 62 61 60 61 59 58 59 59 58 58 57 57 56 56 55 55 55 55 54 53 53 53 53 53 51 52 52 51 52 51 51 50 50 49 49 49 48 46 46 45 46 47 47 46 47 48 48 49 49 50 49 47 46 46 46 47
64 64 64 63 63 62 62 62 61 61 61 60 58 58 58 57 57 58 57 56 56 56 55 55 54 53 53 54 53 53 51 51 52 52 52 52 51 50 50 49 48 49 48 46 45 44 44 45 48 45 46 46 47 47 47 48 49 48 47 46 47 45 45
64 64 65 64 63 63 62 61 61 61 61 59 58 58 57 57 56 57 56 56 56 56 55 54 54 54 54 53 52 52 52 52 52 51 51 51 51 50 49 48 48 49 49 45 44 42 43 44 45 44 44 45 45 45 45 45 45 44 43 44 42 42 43
65 65 64 64 63 63 62 63 61 61 60 59 59 58 58 58 57 56 56 56 56 56 55 54 55 54 53 52 52 52 52 53 51 51 51 51 50 49 48 48 48 48 51 53 52 50 50 50 45 44 43 43 43 43 43 43 44 41 41 41 42 43 42
65 65 64 64 64 63 63 63 62 61 60 59 58 58 58 57 57 56 56 56 56 55 54 55 57 55 54 53 52 54 52 51 52 51 51 50 49 49 49 49 51 57 56 54 52 49 47 49 51 47 43 42 42 43 41 41 41 41 42 40 39 40 41
65 64 64 64 64 64 64 62 62 61 59 59 58 57 57 57 56 56 56 55 54 54 55 57 51 48 49 52 54 51 51 51 51 51 51 50 48 48 48 49 47 53 53 53 47 46 45 46 46 47 49 50 50 43 41 40 41 39 41 41 41 40 40
64 64 64 64 64 64 63 62 61 60 58 58 57 57 56 57 55 55 55 55 54 54 53 52 46 47 47 48 52 52 51 51 51 51 50 50 50 49 47 46 45 48 46 45 44 43 46 47 44 44 43 44 44 46 46 43 42 41 40 41 40 40 39
63 63 64 64 64 63 62 62 60 59 58 58 56 56 56 56 54 55 55 54 52 51 50 46 46 47 47 46 48 51 52 51 51 50 50 51 50 48 46 46 46 47 49 55 51 43 43 44 46 44 44 45 44 42 40 41 43 43 40 41 40 39 40
63 63 64 64 64 63 61 61 60 59 58 57 56 56 55 55 54 54 54 53 50 50 48 46 45 45 45 46 47 50 52 51 51 51 50 50 49 47 47 46 46 47 46 49 47 45 44 43 43 44 42 42 43 47 45 42 40 41 43 43 41 41 43
63 63 64 64 63 62 62 60 60 57 57 57 55 55 55 54 54 54 53 51 50 48 49 45 44 44 44 45 47 50 52 52 51 50 50 50 50 48 48 48 48 47 46 45 46 46 45 43 43 45 43 44 45 46 45 45 44 43 43 43 42 43 45
63 63 63 63 62 62 61 60 59 57 56 54 54 54 53 54 54 53 52 51 49 47 46 43 44 44 45 45 47 51 50 51 50 50 49 49 50 50 50 49 48 47 45 44 48 46 46 44 43 44 45 45 45 47 47 50 46 46 47 45 44 45 46
63 63 63 62 62 61 60 59 59 57 56 54 54 54 53 53 54 53 51 50 49 48 47 45 46 44 45 46 47 50 50 50 49 49 49 49 49 50 50 49 48 47 46 45 44 41 43 46 43 45 45 44 46 45 45 47 45 44 44 44 44 43 43
63 62 63 62 61 61 60 60 59 58 57 54 53 53 53 54 55 54 51 50 51 49 48 47 45 44 45 45 49 50 47 49 48 49 50 50 50 50 50 58 53 47 46 45 41 41 42 45 42 42 44 44 45 44 42 45 48 48 46 44 44 44 44
63 61 60 61 61 61 59 59 58 57 56 55 54 54 54 54 52 51 51 50 51 49 47 48 44 44 45 45 49 49 48 49 48 48 49 49 48 49 48 55 54 49 48 45 40 41 41 44 42 41 41 44 44 43 42 42 43 42 42 44 46 47 47
61 62 62 61 58 60 59 58 57 55 56 56 55 53 52 51 49 48 50 50 50 49 48 48 46 43 45 44 46 51 48 47 48 46 47 49 49 45 47 46 47 43 43 40 39 40 41 43 42 41 41 41 42 42 41 40 43 43 41 42 42 43 45
60 61 61 58 55 57 58 58 56 53 55 55 54 52 51 51 50 49 49 49 49 49 49 48 46 43 44 44 45 48 47 46 46 47 47 48 48 46 46 45 44 43 41 40 39 39 40 41 43 42 41 41 42 42 41 39 41 47 41 41 42 43 45
59 59 58 55 55 57 58 58 57 56 56 54 53 52 52 51 50 48 48 49 49 48 50 50 48 43 43 43 44 46 48 45 45 47 48 47 47 46 46 46 45 43 42 42 41 40 40 40 41 42 41 41 41 41 39 41 40 41 42 43 41 42 43
59 59 58 57 57 56 56 56 55 56 54 54 53 51 49 49 49 48 48 47 47 48 48 49 47 46 42 43 43 44 45 43 41 45 44 44 46 48 47 48 48 45 41 41 41 40 40 39 40 40 40 39 40 39 39 39 39 40 39 40 42 41 42
60 59 58 58 57 56 55 55 55 55 54 53 51 49 47 48 48 49 48 46 47 47 47 46 46 45 45 42 42 43 43 42 42 43 43 42 40 39 42 44 47 43 41 41 41 41 40 40 40 39 38 39 39 39 39 38 38 39 40 39 39 41 43